Wetterdaten: Samstag, 02.08.2014
Datum Zeit Temp. Aussen +5cm Feuchte Auss Luftdruck Regen Sonnenschein Regendauer UV Solar Windben
02.08.2014 00:00 20,8 C 18,3 C 85 % 1007,9 hPa 0,0 l/m 0 min 0 min 0,0 UV-I 0 W/m 0,0 km/h (0 Bft)
02.08.2014 00:02 20,8 C 18,3 C 85 % 1007,8 hPa 0,0 l/m 0 min 0 min 0,0 UV-I 0 W/m 0,0 km/h (0 Bft)
02.08.2014 00:05 20,8 C 18,3 C 85 % 1007,8 hPa 0,0 l/m 0 min 0 min 0,0 UV-I 0 W/m 0,0 km/h (0 Bft)
02.08.2014 00:06 20,8 C 18,3 C 85 % 1007,8 hPa 0,0 l/m 0 min 0 min 0,0 UV-I 0 W/m 0,0 km/h (0 Bft)
02.08.2014 00:08 20,8 C 18,3 C 85 % 1007,8 hPa 0,0 l/m 0 min 0 min 0,0 UV-I 0 W/m 0,0 km/h (0 Bft)
02.08.2014 00:10 20,8 C 18,3 C 85 % 1007,8 hPa 0,0 l/m 0 min 0 min 0,0 UV-I 0 W/m 0,0 km/h (0 Bft)
02.08.2014 00:12 20,7 C 18,3 C 86 % 1007,8 hPa 0,0 l/m 0 min 0 min 0,0 UV-I 0 W/m 0,0 km/h (0 Bft)
02.08.2014 00:14 20,7 C 18,3 C 86 % 1007,8 hPa 0,0 l/m 0 min 0 min 0,0 UV-I 0 W/m 0,0 km/h (0 Bft)
02.08.2014 00:16 20,6 C 18,3 C 86 % 1007,8 hPa 0,0 l/m 0 min 0 min 0,0 UV-I 0 W/m 0,0 km/h (0 Bft)
02.08.2014 00:18 20,6 C 18,3 C 86 % 1007,8 hPa 0,0 l/m 0 min 0 min 0,0 UV-I 0 W/m 0,0 km/h (0 Bft)
02.08.2014 00:20 20,6 C 18,3 C 86 % 1007,8 hPa 0,0 l/m 0 min 0 min 0,0 UV-I 0 W/m 0,0 km/h (0 Bft)
02.08.2014 00:22 20,5 C 18,3 C 86 % 1007,8 hPa 0,0 l/m 0 min 0 min 0,0 UV-I 0 W/m 0,0 km/h (0 Bft)
02.08.2014 00:24 20,5 C 18,3 C 87 % 1007,7 hPa 0,0 l/m 0 min 0 min 0,0 UV-I 0 W/m 0,0 km/h (0 Bft)
02.08.2014 00:26 20,4 C 18,3 C 87 % 1007,8 hPa 0,0 l/m 0 min 0 min 0,0 UV-I 0 W/m 0,0 km/h (0 Bft)
02.08.2014 00:28 20,4 C 18,3 C 87 % 1007,8 hPa 0,0 l/m 0 min 0 min 0,0 UV-I 0 W/m 0,0 km/h (0 Bft)
02.08.2014 00:30 20,4 C 18,3 C 87 % 1007,7 hPa 0,0 l/m 0 min 0 min 0,0 UV-I 0 W/m 0,0 km/h (0 Bft)
02.08.2014 00:32 20,4 C 18,3 C 87 % 1007,7 hPa 0,0 l/m 0 min 0 min 0,0 UV-I 0 W/m 0,0 km/h (0 Bft)
02.08.2014 00:34 20,4 C 18,3 C 87 % 1007,8 hPa 0,0 l/m 0 min 0 min 0,0 UV-I 0 W/m 0,0 km/h (0 Bft)
02.08.2014 00:36 20,4 C 18,3 C 87 % 1007,8 hPa 0,0 l/m 0 min 0 min 0,0 UV-I 0 W/m 0,0 km/h (0 Bft)
02.08.2014 00:38 20,5 C 18,3 C 87 % 1007,8 hPa 0,0 l/m 0 min 0 min 0,0 UV-I 0 W/m 0,0 km/h (0 Bft)
02.08.2014 00:40 20,6 C 18,3 C 87 % 1007,7 hPa 0,0 l/m 0 min 0 min 0,0 UV-I 0 W/m 0,0 km/h (0 Bft)
02.08.2014 00:42 20,6 C 18,3 C 87 % 1007,7 hPa 0,0 l/m 0 min 0 min 0,0 UV-I 0 W/m 10,7 km/h (2 Bft)
02.08.2014 00:44 20,7 C 18,3 C 86 % 1007,8 hPa 0,0 l/m 0 min 0 min 0,0 UV-I 0 W/m 10,7 km/h (2 Bft)
02.08.2014 00:46 20,8 C 18,3 C 85 % 1007,8 hPa 0,0 l/m 0 min 0 min 0,0 UV-I 0 W/m 3,5 km/h (1 Bft)
02.08.2014 00:48 21,0 C 18,9 C 84 % 1007,8 hPa 0,0 l/m 0 min 0 min 0,0 UV-I 0 W/m 3,5 km/h (1 Bft)
02.08.2014 00:50 21,1 C 18,9 C 83 % 1007,7 hPa 0,0 l/m 0 min 0 min 0,0 UV-I 0 W/m 10,7 km/h (2 Bft)
02.08.2014 00:52 21,2 C 18,9 C 83 % 1007,8 hPa 0,0 l/m 0 min 0 min 0,0 UV-I 0 W/m 17,7 km/h (3 Bft)
02.08.2014 00:54 21,3 C 18,9 C 82 % 1007,8 hPa 0,0 l/m 0 min 0 min 0,0 UV-I 0 W/m 17,7 km/h (3 Bft)
02.08.2014 00:56 21,3 C 18,9 C 82 % 1007,8 hPa 0,0 l/m 0 min 0 min 0,0 UV-I 0 W/m 17,7 km/h (3 Bft)
02.08.2014 00:58 21,4 C 18,9 C 81 % 1007,8 hPa 0,0 l/m 0 min 0 min 0,0 UV-I 0 W/m 17,7 km/h (3 Bft)
02.08.2014 01:00 21,4 C 18,9 C 81 % 1007,7 hPa 0,0 l/m 0 min 0 min 0,0 UV-I 0 W/m 21,3 km/h (4 Bft)
02.08.2014 01:02 21,6 C 19,4 C 80 % 1007,7 hPa 0,0 l/m 0 min 0 min 0,0 UV-I 0 W/m 17,7 km/h (3 Bft)
02.08.2014 01:04 21,6 C 19,4 C 80 % 1007,8 hPa 0,0 l/m 0 min 0 min 0,0 UV-I 0 W/m 14,2 km/h (3 Bft)
02.08.2014 01:06 21,7 C 19,4 C 80 % 1007,8 hPa 0,0 l/m 0 min 0 min 0,0 UV-I 0 W/m 17,7 km/h (3 Bft)
02.08.2014 01:08 21,7 C 19,4 C 80 % 1007,8 hPa 0,0 l/m 0 min 0 min 0,0 UV-I 0 W/m 17,7 km/h (3 Bft)
02.08.2014 01:10 21,8 C 19,4 C 80 % 1007,7 hPa 0,0 l/m 0 min 0 min 0,0 UV-I 0 W/m 17,7 km/h (3 Bft)
02.08.2014 01:12 21,9 C 19,4 C 79 % 1007,6 hPa 0,0 l/m 0 min 0 min 0,0 UV-I 0 W/m 10,7 km/h (2 Bft)
02.08.2014 01:14 21,9 C 19,4 C 79 % 1007,6 hPa 0,0 l/m 0 min 0 min 0,0 UV-I 0 W/m 14,2 km/h (3 Bft)
02.08.2014 01:16 21,9 C 19,4 C 79 % 1007,6 hPa 0,0 l/m 0 min 0 min 0,0 UV-I 0 W/m 10,7 km/h (2 Bft)
02.08.2014 01:18 22,0 C 19,4 C 79 % 1007,5 hPa 0,0 l/m 0 min 0 min 0,0 UV-I 0 W/m 17,7 km/h (3 Bft)
02.08.2014 01:20 22,0 C 20,0 C 78 % 1007,5 hPa 0,0 l/m 0 min 0 min 0,0 UV-I 0 W/m 14,2 km/h (3 Bft)
02.08.2014 01:22 22,0 C 20,0 C 78 % 1007,5 hPa 0,0 l/m 0 min 0 min 0,0 UV-I 0 W/m 17,7 km/h (3 Bft)
02.08.2014 01:24 22,0 C 20,0 C 78 % 1007,5 hPa 0,0 l/m 0 min 0 min 0,0 UV-I 0 W/m 21,3 km/h (4 Bft)
02.08.2014 01:26 22,0 C 20,0 C 78 % 1007,5 hPa 0,0 l/m 0 min 0 min 0,0 UV-I 0 W/m 21,3 km/h (4 Bft)
02.08.2014 01:28 21,9 C 20,0 C 78 % 1007,5 hPa 0,0 l/m 0 min 0 min 0,0 UV-I 0 W/m 28,2 km/h (4 Bft)
02.08.2014 01:30 21,9 C 20,0 C 78 % 1007,5 hPa 0,0 l/m 0 min 0 min 0,0 UV-I 0 W/m 14,2 km/h (3 Bft)
02.08.2014 01:32 21,9 C 20,0 C 78 % 1007,5 hPa 0,0 l/m 0 min 0 min 0,0 UV-I 0 W/m 17,7 km/h (3 Bft)
02.08.2014 01:34 21,9 C 20,0 C 78 % 1007,5 hPa 0,0 l/m 0 min 0 min 0,0 UV-I 0 W/m 14,2 km/h (3 Bft)
02.08.2014 01:36 21,8 C 20,0 C 78 % 1007,5 hPa 0,0 l/m 0 min 0 min 0,0 UV-I 0 W/m 14,2 km/h (3 Bft)
02.08.2014 01:38 21,8 C 20,0 C 79 % 1007,5 hPa 0,0 l/m 0 min 0 min 0,0 UV-I 0 W/m 17,7 km/h (3 Bft)
02.08.2014 01:40 21,8 C 19,4 C 79 % 1007,5 hPa 0,0 l/m 0 min 0 min 0,0 UV-I 0 W/m 10,7 km/h (2 Bft)
02.08.2014 01:42 21,7 C 19,4 C 79 % 1007,5 hPa 0,0 l/m 0 min 0 min 0,0 UV-I 0 W/m 14,2 km/h (3 Bft)
02.08.2014 01:44 21,7 C 19,4 C 79 % 1007,5 hPa 0,0 l/m 0 min 0 min 0,0 UV-I 0 W/m 17,7 km/h (3 Bft)
02.08.2014 01:46 21,7 C 19,4 C 79 % 1007,5 hPa 0,0 l/m 0 min 0 min 0,0 UV-I 0 W/m 10,7 km/h (2 Bft)
02.08.2014 01:48 21,6 C 19,4 C 79 % 1007,4 hPa 0,0 l/m 0 min 0 min 0,0 UV-I 0 W/m 24,7 km/h (4 Bft)
02.08.2014 01:50 21,6 C 19,4 C 79 % 1007,4 hPa 0,0 l/m 0 min 0 min 0,0 UV-I 0 W/m 3,5 km/h (1 Bft)
02.08.2014 01:52 21,6 C 19,4 C 79 % 1007,4 hPa 0,0 l/m 0 min 0 min 0,0 UV-I 0 W/m 17,7 km/h (3 Bft)
02.08.2014 01:54 21,5 C 19,4 C 79 % 1007,4 hPa 0,0 l/m 0 min 0 min 0,0 UV-I 0 W/m 24,7 km/h (4 Bft)
02.08.2014 01:56 21,4 C 19,4 C 80 % 1007,4 hPa 0,0 l/m 0 min 0 min 0,0 UV-I 0 W/m 7,1 km/h (2 Bft)
02.08.2014 01:58 21,4 C 19,4 C 80 % 1007,4 hPa 0,0 l/m 0 min 0 min 0,0 UV-I 0 W/m 21,3 km/h (4 Bft)
02.08.2014 02:00 21,4 C 19,4 C 80 % 1007,4 hPa 0,0 l/m 0 min 0 min 0,0 UV-I 0 W/m 3,5 km/h (1 Bft)
02.08.2014 02:02 21,3 C 19,4 C 80 % 1007,4 hPa 0,0 l/m 0 min 0 min 0,0 UV-I 0 W/m 17,7 km/h (3 Bft)
02.08.2014 02:04 21,2 C 19,4 C 81 % 1007,4 hPa 0,0 l/m 0 min 0 min 0,0 UV-I 0 W/m 21,3 km/h (4 Bft)
02.08.2014 02:06 21,2 C 19,4 C 81 % 1007,3 hPa 0,0 l/m 0 min 0 min 0,0 UV-I 0 W/m 14,2 km/h (3 Bft)
02.08.2014 02:08 21,2 C 19,4 C 81 % 1007,3 hPa 0,0 l/m 0 min 0 min 0,0 UV-I 0 W/m 17,7 km/h (3 Bft)
02.08.2014 02:10 21,1 C 18,9 C 81 % 1007,3 hPa 0,0 l/m 0 min 0 min 0,0 UV-I 0 W/m 14,2 km/h (3 Bft)
02.08.2014 02:12 21,1 C 18,9 C 81 % 1007,3 hPa 0,0 l/m 0 min 0 min 0,0 UV-I 0 W/m 21,3 km/h (4 Bft)
02.08.2014 02:14 21,0 C 18,9 C 81 % 1007,3 hPa 0,0 l/m 0 min 0 min 0,0 UV-I 0 W/m 17,7 km/h (3 Bft)
02.08.2014 02:16 20,9 C 18,9 C 82 % 1007,3 hPa 0,0 l/m 0 min 0 min 0,0 UV-I 0 W/m 14,2 km/h (3 Bft)
02.08.2014 02:18 20,9 C 18,9 C 82 % 1007,2 hPa 0,0 l/m 0 min 0 min 0,0 UV-I 0 W/m 17,7 km/h (3 Bft)
02.08.2014 02:20 20,8 C 18,9 C 82 % 1007,2 hPa 0,0 l/m 0 min 0 min 0,0 UV-I 0 W/m 21,3 km/h (4 Bft)
02.08.2014 02:22 20,8 C 18,9 C 82 % 1007,2 hPa 0,0 l/m 0 min 0 min 0,0 UV-I 0 W/m 17,7 km/h (3 Bft)
02.08.2014 02:24 20,7 C 18,9 C 82 % 1007,2 hPa 0,0 l/m 0 min 0 min 0,0 UV-I 0 W/m 21,3 km/h (4 Bft)
02.08.2014 02:26 20,7 C 18,9 C 82 % 1007,2 hPa 0,0 l/m 0 min 0 min 0,0 UV-I 0 W/m 17,7 km/h (3 Bft)
02.08.2014 02:28 20,7 C 18,9 C 82 % 1007,2 hPa 0,0 l/m 0 min 0 min 0,0 UV-I 0 W/m 14,2 km/h (3 Bft)
02.08.2014 02:30 20,6 C 18,9 C 82 % 1007,1 hPa 0,0 l/m 0 min 0 min 0,0 UV-I 0 W/m 24,7 km/h (4 Bft)
02.08.2014 02:32 20,6 C 18,9 C 82 % 1007,1 hPa 0,0 l/m 0 min 0 min 0,0 UV-I 0 W/m 21,3 km/h (4 Bft)
02.08.2014 02:34 20,6 C 18,9 C 82 % 1007,1 hPa 0,0 l/m 0 min 0 min 0,0 UV-I 0 W/m 17,7 km/h (3 Bft)
02.08.2014 02:36 20,6 C 18,9 C 82 % 1007,1 hPa 0,0 l/m 0 min 0 min 0,0 UV-I 0 W/m 17,7 km/h (3 Bft)
02.08.2014 02:38 20,5 C 18,9 C 82 % 1007,2 hPa 0,0 l/m 0 min 0 min 0,0 UV-I 0 W/m 14,2 km/h (3 Bft)
02.08.2014 02:40 20,5 C 18,9 C 82 % 1007,1 hPa 0,0 l/m 0 min 0 min 0,0 UV-I 0 W/m 17,7 km/h (3 Bft)
02.08.2014 02:42 20,5 C 18,9 C 82 % 1007,2 hPa 0,0 l/m 0 min 0 min 0,0 UV-I 0 W/m 10,7 km/h (2 Bft)
02.08.2014 02:44 20,4 C 18,9 C 82 % 1007,2 hPa 0,0 l/m 0 min 0 min 0,0 UV-I 0 W/m 14,2 km/h (3 Bft)
02.08.2014 02:46 20,4 C 18,9 C 82 % 1007,2 hPa 0,0 l/m 0 min 0 min 0,0 UV-I 0 W/m 10,7 km/h (2 Bft)
02.08.2014 02:48 20,4 C 18,9 C 82 % 1007,2 hPa 0,0 l/m 0 min 0 min 0,0 UV-I 0 W/m 7,1 km/h (2 Bft)
02.08.2014 02:50 20,4 C 18,9 C 82 % 1007,2 hPa 0,0 l/m 0 min 0 min 0,0 UV-I 0 W/m 17,7 km/h (3 Bft)
02.08.2014 02:52 20,4 C 18,9 C 82 % 1007,2 hPa 0,0 l/m 0 min 0 min 0,0 UV-I 0 W/m 24,7 km/h (4 Bft)
02.08.2014 02:54 20,4 C 18,9 C 82 % 1007,2 hPa 0,0 l/m 0 min 0 min 0,0 UV-I 0 W/m 17,7 km/h (3 Bft)
02.08.2014 02:56 20,4 C 18,9 C 82 % 1007,2 hPa 0,0 l/m 0 min 0 min 0,0 UV-I 0 W/m 17,7 km/h (3 Bft)
02.08.2014 02:58 20,3 C 18,9 C 82 % 1007,1 hPa 0,0 l/m 0 min 0 min 0,0 UV-I 0 W/m 10,7 km/h (2 Bft)
02.08.2014 03:00 20,3 C 18,9 C 82 % 1007,1 hPa 0,0 l/m 0 min 0 min 0,0 UV-I 0 W/m 17,7 km/h (3 Bft)
02.08.2014 03:02 20,3 C 18,9 C 82 % 1007,2 hPa 0,0 l/m 0 min 0 min 0,0 UV-I 0 W/m 17,7 km/h (3 Bft)
02.08.2014 03:04 20,3 C 18,9 C 82 % 1007,1 hPa 0,0 l/m 0 min 0 min 0,0 UV-I 0 W/m 14,2 km/h (3 Bft)
02.08.2014 03:06 20,3 C 18,3 C 82 % 1007,0 hPa 0,0 l/m 0 min 0 min 0,0 UV-I 0 W/m 21,3 km/h (4 Bft)
02.08.2014 03:08 20,3 C 18,3 C 82 % 1007,0 hPa 0,0 l/m 0 min 0 min 0,0 UV-I 0 W/m 14,2 km/h (3 Bft)
02.08.2014 03:10 20,2 C 18,3 C 82 % 1007,1 hPa 0,0 l/m 0 min 0 min 0,0 UV-I 0 W/m 17,7 km/h (3 Bft)
02.08.2014 03:12 20,2 C 18,3 C 82 % 1007,1 hPa 0,0 l/m 0 min 0 min 0,0 UV-I 0 W/m 21,3 km/h (4 Bft)
02.08.2014 03:14 20,2 C 18,3 C 82 % 1007,0 hPa 0,0 l/m 0 min 0 min 0,0 UV-I 0 W/m 17,7 km/h (3 Bft)
02.08.2014 03:16 20,2 C 18,3 C 82 % 1007,1 hPa 0,0 l/m 0 min 0 min 0,0 UV-I 0 W/m 14,2 km/h (3 Bft)
02.08.2014 03:18 20,2 C 18,3 C 82 % 1007,0 hPa 0,0 l/m 0 min 0 min 0,0 UV-I 0 W/m 21,3 km/h (4 Bft)
02.08.2014 03:20 20,2 C 18,3 C 82 % 1007,0 hPa 0,0 l/m 0 min 0 min 0,0 UV-I 0 W/m 17,7 km/h (3 Bft)
02.08.2014 03:22 20,2 C 18,3 C 82 % 1007,0 hPa 0,0 l/m 0 min 0 min 0,0 UV-I 0 W/m 17,7 km/h (3 Bft)
02.08.2014 03:24 20,2 C 18,3 C 82 % 1007,0 hPa 0,0 l/m 0 min 0 min 0,0 UV-I 0 W/m 10,7 km/h (2 Bft)
02.08.2014 03:26 20,2 C 18,3 C 82 % 1006,9 hPa 0,0 l/m 0 min 0 min 0,0 UV-I 0 W/m 17,7 km/h (3 Bft)
02.08.2014 03:28 20,2 C 18,3 C 82 % 1006,9 hPa 0,0 l/m 0 min 0 min 0,0 UV-I 0 W/m 17,7 km/h (3 Bft)
02.08.2014 03:30 20,2 C 18,3 C 82 % 1006,9 hPa 0,0 l/m 0 min 0 min 0,0 UV-I 0 W/m 14,2 km/h (3 Bft)
02.08.2014 03:32 20,2 C 18,9 C 82 % 1006,9 hPa 0,0 l/m 0 min 0 min 0,0 UV-I 0 W/m 17,7 km/h (3 Bft)
02.08.2014 03:34 20,2 C 18,9 C 82 % 1006,9 hPa 0,0 l/m 0 min 0 min 0,0 UV-I 0 W/m 14,2 km/h (3 Bft)
02.08.2014 03:36 20,3 C 18,9 C 82 % 1006,9 hPa 0,0 l/m 0 min 0 min 0,0 UV-I 0 W/m 14,2 km/h (3 Bft)
02.08.2014 03:38 20,3 C 18,9 C 82 % 1006,9 hPa 0,0 l/m 0 min 0 min 0,0 UV-I 0 W/m 14,2 km/h (3 Bft)
02.08.2014 03:40 20,3 C 18,9 C 82 % 1006,9 hPa 0,0 l/m 0 min 0 min 0,0 UV-I 0 W/m 14,2 km/h (3 Bft)
02.08.2014 03:42 20,3 C 18,9 C 82 % 1006,9 hPa 0,0 l/m 0 min 0 min 0,0 UV-I 0 W/m 21,3 km/h (4 Bft)
02.08.2014 03:44 20,3 C 18,9 C 82 % 1006,9 hPa 0,0 l/m 0 min 0 min 0,0 UV-I 0 W/m 7,1 km/h (2 Bft)
02.08.2014 03:46 20,3 C 18,9 C 81 % 1006,9 hPa 0,0 l/m 0 min 0 min 0,0 UV-I 0 W/m 10,7 km/h (2 Bft)
02.08.2014 03:48 20,3 C 18,9 C 81 % 1006,9 hPa 0,0 l/m 0 min 0 min 0,0 UV-I 0 W/m 17,7 km/h (3 Bft)
02.08.2014 03:50 20,3 C 18,9 C 81 % 1006,9 hPa 0,0 l/m 0 min 0 min 0,0 UV-I 0 W/m 21,3 km/h (4 Bft)
02.08.2014 03:52 20,3 C 18,9 C 81 % 1006,8 hPa 0,0 l/m 0 min 0 min 0,0 UV-I 0 W/m 17,7 km/h (3 Bft)
02.08.2014 03:54 20,3 C 18,9 C 81 % 1006,8 hPa 0,0 l/m 0 min 0 min 0,0 UV-I 0 W/m 17,7 km/h (3 Bft)
02.08.2014 03:56 20,3 C 18,9 C 81 % 1006,8 hPa 0,0 l/m 0 min 0 min 0,0 UV-I 0 W/m 14,2 km/h (3 Bft)
02.08.2014 03:58 20,3 C 18,9 C 81 % 1006,8 hPa 0,0 l/m 0 min 0 min 0,0 UV-I 0 W/m 14,2 km/h (3 Bft)
02.08.2014 04:00 20,3 C 18,9 C 81 % 1006,8 hPa 0,0 l/m 0 min 0 min 0,0 UV-I 0 W/m 17,7 km/h (3 Bft)
02.08.2014 04:02 20,3 C 18,9 C 81 % 1006,8 hPa 0,0 l/m 0 min 0 min 0,0 UV-I 0 W/m 14,2 km/h (3 Bft)
02.08.2014 04:04 20,3 C 18,9 C 81 % 1006,8 hPa 0,0 l/m 0 min 0 min 0,0 UV-I 0 W/m 14,2 km/h (3 Bft)
02.08.2014 04:06 20,3 C 18,9 C 81 % 1006,7 hPa 0,0 l/m 0 min 0 min 0,0 UV-I 0 W/m 14,2 km/h (3 Bft)
02.08.2014 04:08 20,3 C 18,9 C 81 % 1006,8 hPa 0,0 l/m 0 min 0 min 0,0 UV-I 0 W/m 3,5 km/h (1 Bft)
02.08.2014 04:10 20,3 C 18,9 C 81 % 1006,8 hPa 0,0 l/m 0 min 0 min 0,0 UV-I 0 W/m 17,7 km/h (3 Bft)
02.08.2014 04:12 20,3 C 18,9 C 81 % 1006,8 hPa 0,0 l/m 0 min 0 min 0,0 UV-I 0 W/m 17,7 km/h (3 Bft)
02.08.2014 04:14 20,3 C 18,9 C 81 % 1006,7 hPa 0,0 l/m 0 min 0 min 0,0 UV-I 0 W/m 21,3 km/h (4 Bft)
02.08.2014 04:16 20,3 C 18,9 C 81 % 1006,7 hPa 0,0 l/m 0 min 0 min 0,0 UV-I 0 W/m 21,3 km/h (4 Bft)
02.08.2014 04:18 20,3 C 18,9 C 81 % 1006,7 hPa 0,0 l/m 0 min 0 min 0,0 UV-I 0 W/m 21,3 km/h (4 Bft)
02.08.2014 04:20 20,3 C 18,9 C 81 % 1006,7 hPa 0,0 l/m 0 min 0 min 0,0 UV-I 0 W/m 17,7 km/h (3 Bft)
02.08.2014 04:22 20,3 C 18,9 C 81 % 1006,8 hPa 0,0 l/m 0 min 0 min 0,0 UV-I 0 W/m 21,3 km/h (4 Bft)
02.08.2014 04:24 20,2 C 18,9 C 81 % 1006,8 hPa 0,0 l/m 0 min 0 min 0,0 UV-I 0 W/m 10,7 km/h (2 Bft)
02.08.2014 04:26 20,2 C 18,3 C 81 % 1006,8 hPa 0,0 l/m 0 min 0 min 0,0 UV-I 0 W/m 14,2 km/h (3 Bft)
02.08.2014 04:28 20,2 C 18,3 C 81 % 1006,8 hPa 0,0 l/m 0 min 0 min 0,0 UV-I 0 W/m 10,7 km/h (2 Bft)
02.08.2014 04:30 20,2 C 18,3 C 81 % 1006,8 hPa 0,0 l/m 0 min 0 min 0,0 UV-I 0 W/m 14,2 km/h (3 Bft)
02.08.2014 04:32 20,1 C 18,3 C 81 % 1006,7 hPa 0,0 l/m 0 min 0 min 0,0 UV-I 0 W/m 21,3 km/h (4 Bft)
02.08.2014 04:34 20,1 C 18,3 C 81 % 1006,8 hPa 0,0 l/m 0 min 0 min 0,0 UV-I 0 W/m 17,7 km/h (3 Bft)
02.08.2014 04:36 20,1 C 18,3 C 81 % 1006,8 hPa 0,0 l/m 0 min 0 min 0,0 UV-I 0 W/m 17,7 km/h (3 Bft)
02.08.2014 04:38 20,1 C 18,3 C 81 % 1006,7 hPa 0,0 l/m 0 min 0 min 0,0 UV-I 0 W/m 14,2 km/h (3 Bft)
02.08.2014 04:40 20,1 C 18,3 C 82 % 1006,7 hPa 0,0 l/m 0 min 0 min 0,0 UV-I 0 W/m 17,7 km/h (3 Bft)
02.08.2014 04:42 20,0 C 18,3 C 82 % 1006,7 hPa 0,0 l/m 0 min 0 min 0,0 UV-I 0 W/m 17,7 km/h (3 Bft)
02.08.2014 04:44 20,0 C 18,3 C 82 % 1006,7 hPa 0,0 l/m 0 min 0 min 0,0 UV-I 0 W/m 24,7 km/h (4 Bft)
02.08.2014 04:46 20,0 C 18,3 C 82 % 1006,8 hPa 0,0 l/m 0 min 0 min 0,0 UV-I 0 W/m 21,3 km/h (4 Bft)
02.08.2014 04:48 20,0 C 18,3 C 82 % 1006,7 hPa 0,0 l/m 0 min 0 min 0,0 UV-I 0 W/m 17,7 km/h (3 Bft)
02.08.2014 04:50 19,9 C 18,3 C 82 % 1006,7 hPa 0,0 l/m 0 min 0 min 0,0 UV-I 0 W/m 14,2 km/h (3 Bft)
02.08.2014 04:52 19,9 C 18,3 C 82 % 1006,7 hPa 0,0 l/m 0 min 0 min 0,0 UV-I 0 W/m 14,2 km/h (3 Bft)
02.08.2014 04:54 19,9 C 18,3 C 82 % 1006,7 hPa 0,0 l/m 0 min 0 min 0,0 UV-I 0 W/m 21,3 km/h (4 Bft)
02.08.2014 04:56 19,9 C 18,3 C 82 % 1006,7 hPa 0,0 l/m 0 min 0 min 0,0 UV-I 0 W/m 28,2 km/h (4 Bft)
02.08.2014 04:58 19,9 C 18,3 C 82 % 1006,7 hPa 0,0 l/m 0 min 0 min 0,0 UV-I 0 W/m 21,3 km/h (4 Bft)
02.08.2014 05:00 19,9 C 18,3 C 82 % 1006,7 hPa 0,0 l/m 0 min 0 min 0,0 UV-I 0 W/m 17,7 km/h (3 Bft)
02.08.2014 05:02 19,9 C 18,3 C 81 % 1006,6 hPa 0,0 l/m 0 min 0 min 0,0 UV-I 0 W/m 17,7 km/h (3 Bft)
02.08.2014 05:04 19,9 C 18,3 C 82 % 1006,6 hPa 0,0 l/m 0 min 0 min 0,0 UV-I 0 W/m 17,7 km/h (3 Bft)
02.08.2014 05:06 19,8 C 18,3 C 82 % 1006,6 hPa 0,0 l/m 0 min 0 min 0,0 UV-I 0 W/m 21,3 km/h (4 Bft)
02.08.2014 05:08 19,8 C 18,3 C 82 % 1006,6 hPa 0,0 l/m 0 min 0 min 0,0 UV-I 0 W/m 17,7 km/h (3 Bft)
02.08.2014 05:10 19,8 C 18,3 C 82 % 1006,6 hPa 0,0 l/m 0 min 0 min 0,0 UV-I 0 W/m 21,3 km/h (4 Bft)
02.08.2014 05:12 19,7 C 18,3 C 82 % 1006,5 hPa 0,0 l/m 0 min 0 min 0,0 UV-I 0 W/m 24,7 km/h (4 Bft)
02.08.2014 05:14 19,7 C 17,8 C 82 % 1006,5 hPa 0,0 l/m 0 min 0 min 0,0 UV-I 0 W/m 28,2 km/h (4 Bft)
02.08.2014 05:16 19,7 C 18,3 C 82 % 1006,6 hPa 0,0 l/m 0 min 0 min 0,0 UV-I 0 W/m 24,7 km/h (4 Bft)
02.08.2014 05:18 19,7 C 17,8 C 82 % 1006,6 hPa 0,0 l/m 0 min 0 min 0,0 UV-I 0 W/m 28,2 km/h (4 Bft)
02.08.2014 05:20 19,6 C 17,8 C 82 % 1006,5 hPa 0,0 l/m 0 min 0 min 0,0 UV-I 0 W/m 35,4 km/h (5 Bft)
02.08.2014 05:22 19,6 C 17,8 C 82 % 1006,4 hPa 0,0 l/m 0 min 0 min 0,0 UV-I 0 W/m 24,7 km/h (4 Bft)
02.08.2014 05:24 19,6 C 17,8 C 81 % 1006,5 hPa 0,0 l/m 0 min 0 min 0,0 UV-I 0 W/m 24,7 km/h (4 Bft)
02.08.2014 05:26 19,6 C 17,8 C 81 % 1006,5 hPa 0,0 l/m 0 min 0 min 0,0 UV-I 0 W/m 17,7 km/h (3 Bft)
02.08.2014 05:28 19,6 C 17,8 C 81 % 1006,5 hPa 0,0 l/m 0 min 0 min 0,0 UV-I 0 W/m 24,7 km/h (4 Bft)
02.08.2014 05:30 19,6 C 17,8 C 81 % 1006,6 hPa 0,0 l/m 0 min 0 min 0,0 UV-I 0 W/m 31,7 km/h (5 Bft)
02.08.2014 05:32 19,5 C 17,8 C 81 % 1006,6 hPa 0,0 l/m 0 min 0 min 0,0 UV-I 0 W/m 21,3 km/h (4 Bft)
02.08.2014 05:34 19,5 C 17,8 C 82 % 1006,6 hPa 0,0 l/m 0 min 0 min 0,0 UV-I 0 W/m 24,7 km/h (4 Bft)
02.08.2014 05:36 19,4 C 17,8 C 82 % 1006,5 hPa 0,0 l/m 0 min 0 min 0,0 UV-I 0 W/m 24,7 km/h (4 Bft)
02.08.2014 05:38 19,4 C 17,8 C 82 % 1006,5 hPa 0,0 l/m 0 min 0 min 0,0 UV-I 0 W/m 21,3 km/h (4 Bft)
02.08.2014 05:40 19,4 C 17,8 C 82 % 1006,5 hPa 0,0 l/m 0 min 0 min 0,0 UV-I 0 W/m 28,2 km/h (4 Bft)
02.08.2014 05:42 19,4 C 17,8 C 81 % 1006,5 hPa 0,0 l/m 0 min 0 min 0,0 UV-I 0 W/m 24,7 km/h (4 Bft)
02.08.2014 05:44 19,3 C 17,8 C 81 % 1006,5 hPa 0,0 l/m 0 min 0 min 0,0 UV-I 0 W/m 28,2 km/h (4 Bft)
02.08.2014 05:46 19,3 C 17,8 C 81 % 1006,5 hPa 0,0 l/m 0 min 0 min 0,0 UV-I 0 W/m 17,7 km/h (3 Bft)
02.08.2014 05:48 19,3 C 17,8 C 81 % 1006,5 hPa 0,0 l/m 0 min 0 min 0,0 UV-I 0 W/m 21,3 km/h (4 Bft)
02.08.2014 05:50 19,2 C 17,8 C 81 % 1006,5 hPa 0,0 l/m 0 min 0 min 0,0 UV-I 0 W/m 21,3 km/h (4 Bft)
02.08.2014 05:52 19,2 C 17,8 C 82 % 1006,5 hPa 0,0 l/m 0 min 0 min 0,0 UV-I 0 W/m 24,7 km/h (4 Bft)
02.08.2014 05:54 19,1 C 17,8 C 82 % 1006,5 hPa 0,0 l/m 0 min 0 min 0,0 UV-I 0 W/m 21,3 km/h (4 Bft)
02.08.2014 05:56 19,1 C 17,2 C 82 % 1006,5 hPa 0,0 l/m 0 min 0 min 0,0 UV-I 0 W/m 21,3 km/h (4 Bft)
02.08.2014 05:58 19,0 C 17,2 C 82 % 1006,5 hPa 0,0 l/m 0 min 0 min 0,0 UV-I 0 W/m 17,7 km/h (3 Bft)
02.08.2014 06:00 18,9 C 17,2 C 82 % 1006,4 hPa 0,0 l/m 0 min 0 min 0,0 UV-I 0 W/m 21,3 km/h (4 Bft)
02.08.2014 06:02 18,9 C 17,2 C 82 % 1006,4 hPa 0,0 l/m 0 min 0 min 0,0 UV-I 0 W/m 21,3 km/h (4 Bft)
02.08.2014 06:06 18,8 C 17,2 C 82 % 1006,3 hPa 0,0 l/m 0 min 0 min 0,0 UV-I 0 W/m 24,7 km/h (4 Bft)
02.08.2014 06:08 18,8 C 17,2 C 82 % 1006,3 hPa 0,0 l/m 0 min 0 min 0,0 UV-I 7 W/m 21,3 km/h (4 Bft)
02.08.2014 06:10 18,8 C 17,2 C 82 % 1006,4 hPa 0,0 l/m 0 min 0 min 0,0 UV-I 7 W/m 21,3 km/h (4 Bft)
02.08.2014 06:12 18,7 C 17,2 C 83 % 1006,4 hPa 0,0 l/m 0 min 0 min 0,0 UV-I 8 W/m 17,7 km/h (3 Bft)
02.08.2014 06:14 18,7 C 17,2 C 83 % 1006,4 hPa 0,0 l/m 0 min 0 min 0,0 UV-I 9 W/m 21,3 km/h (4 Bft)
02.08.2014 06:16 18,6 C 17,2 C 83 % 1006,4 hPa 0,0 l/m 0 min 0 min 0,0 UV-I 9 W/m 17,7 km/h (3 Bft)
02.08.2014 06:18 18,6 C 17,2 C 83 % 1006,4 hPa 0,0 l/m 0 min 0 min 0,0 UV-I 11 W/m 21,3 km/h (4 Bft)
02.08.2014 06:20 18,5 C 17,2 C 83 % 1006,3 hPa 0,0 l/m 0 min 0 min 0,0 UV-I 12 W/m 14,2 km/h (3 Bft)
02.08.2014 06:22 18,5 C 17,2 C 83 % 1006,3 hPa 0,0 l/m 0 min 0 min 0,0 UV-I 12 W/m 14,2 km/h (3 Bft)
02.08.2014 06:24 18,4 C 17,2 C 83 % 1006,3 hPa 0,0 l/m 0 min 0 min 0,0 UV-I 14 W/m 14,2 km/h (3 Bft)
02.08.2014 06:26 18,4 C 17,2 C 83 % 1006,3 hPa 0,0 l/m 0 min 0 min 0,0 UV-I 17 W/m 10,7 km/h (2 Bft)
02.08.2014 06:28 18,4 C 16,7 C 84 % 1006,3 hPa 0,0 l/m 0 min 0 min 0,0 UV-I 20 W/m 10,7 km/h (2 Bft)
02.08.2014 06:30 18,3 C 16,7 C 84 % 1006,4 hPa 0,0 l/m 0 min 0 min 0,0 UV-I 23 W/m 3,5 km/h (1 Bft)
02.08.2014 06:32 18,3 C 16,7 C 84 % 1006,3 hPa 0,0 l/m 0 min 0 min 0,0 UV-I 30 W/m 10,7 km/h (2 Bft)
02.08.2014 06:34 18,3 C 17,2 C 84 % 1006,2 hPa 0,0 l/m 2 min 0 min 0,0 UV-I 33 W/m 10,7 km/h (2 Bft)
02.08.2014 06:36 18,3 C 17,2 C 84 % 1006,2 hPa 0,0 l/m 2 min 0 min 0,0 UV-I 36 W/m 14,2 km/h (3 Bft)
02.08.2014 06:38 18,4 C 17,2 C 84 % 1006,3 hPa 0,0 l/m 2 min 0 min 0,0 UV-I 41 W/m 7,1 km/h (2 Bft)
02.08.2014 06:40 18,4 C 17,2 C 84 % 1006,3 hPa 0,0 l/m 2 min 0 min 0,0 UV-I 45 W/m 10,7 km/h (2 Bft)
02.08.2014 06:42 18,4 C 17,2 C 84 % 1006,3 hPa 0,0 l/m 2 min 0 min 0,0 UV-I 47 W/m 0,0 km/h (0 Bft)
02.08.2014 06:44 18,4 C 17,2 C 84 % 1006,3 hPa 0,0 l/m 2 min 0 min 0,0 UV-I 50 W/m 0,0 km/h (0 Bft)
02.08.2014 06:46 18,4 C 17,2 C 84 % 1006,4 hPa 0,0 l/m 2 min 0 min 0,0 UV-I 54 W/m 3,5 km/h (1 Bft)
02.08.2014 06:48 18,4 C 17,2 C 84 % 1006,3 hPa 0,0 l/m 2 min 0 min 0,0 UV-I 57 W/m 3,5 km/h (1 Bft)
02.08.2014 06:50 18,4 C 17,2 C 84 % 1006,3 hPa 0,0 l/m 2 min 0 min 0,0 UV-I 61 W/m 10,7 km/h (2 Bft)
02.08.2014 06:52 18,4 C 17,2 C 84 % 1006,3 hPa 0,0 l/m 2 min 0 min 0,0 UV-I 68 W/m 14,2 km/h (3 Bft)
02.08.2014 06:54 18,4 C 17,2 C 84 % 1006,3 hPa 0,0 l/m 2 min 0 min 0,0 UV-I 66 W/m 21,3 km/h (4 Bft)
02.08.2014 06:56 18,4 C 17,2 C 84 % 1006,3 hPa 0,0 l/m 2 min 0 min 0,0 UV-I 68 W/m 21,3 km/h (4 Bft)
02.08.2014 06:58 18,4 C 17,2 C 84 % 1006,3 hPa 0,0 l/m 2 min 0 min 0,0 UV-I 73 W/m 21,3 km/h (4 Bft)
02.08.2014 07:00 18,4 C 17,2 C 84 % 1006,3 hPa 0,0 l/m 2 min 0 min 0,0 UV-I 70 W/m 17,7 km/h (3 Bft)
02.08.2014 07:02 18,4 C 17,2 C 84 % 1006,3 hPa 0,0 l/m 2 min 0 min 0,0 UV-I 70 W/m 14,2 km/h (3 Bft)
02.08.2014 07:04 18,4 C 17,2 C 84 % 1006,3 hPa 0,0 l/m 2 min 0 min 0,0 UV-I 77 W/m 14,2 km/h (3 Bft)
02.08.2014 07:06 18,4 C 17,2 C 84 % 1006,3 hPa 0,0 l/m 2 min 0 min 0,0 UV-I 89 W/m 7,1 km/h (2 Bft)
02.08.2014 07:08 18,4 C 17,2 C 84 % 1006,3 hPa 0,0 l/m 2 min 0 min 0,0 UV-I 91 W/m 0,0 km/h (0 Bft)
02.08.2014 07:10 18,5 C 17,2 C 84 % 1006,3 hPa 0,0 l/m 2 min 0 min 0,0 UV-I 87 W/m 0,0 km/h (0 Bft)
02.08.2014 07:12 18,5 C 17,2 C 84 % 1006,3 hPa 0,0 l/m 0 min 0 min 0,0 UV-I 78 W/m 10,7 km/h (2 Bft)
02.08.2014 07:14 18,6 C 17,2 C 84 % 1006,3 hPa 0,0 l/m 0 min 0 min 0,0 UV-I 74 W/m 10,7 km/h (2 Bft)
02.08.2014 07:16 18,6 C 17,2 C 84 % 1006,3 hPa 0,0 l/m 0 min 0 min 0,0 UV-I 70 W/m 0,0 km/h (0 Bft)
02.08.2014 07:18 18,6 C 17,2 C 84 % 1006,3 hPa 0,0 l/m 0 min 0 min 0,0 UV-I 66 W/m 3,5 km/h (1 Bft)
02.08.2014 07:20 18,6 C 17,2 C 84 % 1006,3 hPa 0,0 l/m 0 min 0 min 0,0 UV-I 63 W/m 0,0 km/h (0 Bft)
02.08.2014 07:22 18,6 C 17,2 C 84 % 1006,3 hPa 0,0 l/m 0 min 0 min 0,0 UV-I 67 W/m 3,5 km/h (1 Bft)
02.08.2014 07:24 18,6 C 17,2 C 84 % 1006,3 hPa 0,0 l/m 0 min 0 min 0,0 UV-I 76 W/m 10,7 km/h (2 Bft)
02.08.2014 07:26 18,6 C 17,2 C 84 % 1006,3 hPa 0,0 l/m 0 min 0 min 0,0 UV-I 80 W/m 0,0 km/h (0 Bft)
02.08.2014 07:28 18,6 C 17,2 C 84 % 1006,3 hPa 0,0 l/m 0 min 0 min 0,0 UV-I 58 W/m 3,5 km/h (1 Bft)
02.08.2014 07:30 18,6 C 17,2 C 84 % 1006,4 hPa 0,0 l/m 0 min 0 min 0,0 UV-I 48 W/m 0,0 km/h (0 Bft)
02.08.2014 07:32 18,6 C 17,2 C 84 % 1006,4 hPa 0,0 l/m 0 min 0 min 0,0 UV-I 51 W/m 3,5 km/h (1 Bft)
02.08.2014 07:34 18,6 C 17,2 C 84 % 1006,3 hPa 0,0 l/m 0 min 0 min 0,0 UV-I 55 W/m 10,7 km/h (2 Bft)
02.08.2014 07:36 18,6 C 17,2 C 84 % 1006,4 hPa 0,0 l/m 0 min 0 min 0,0 UV-I 62 W/m 10,7 km/h (2 Bft)
02.08.2014 07:38 18,6 C 17,2 C 84 % 1006,5 hPa 0,0 l/m 0 min 0 min 0,0 UV-I 59 W/m 0,0 km/h (0 Bft)
02.08.2014 07:40 18,7 C 17,2 C 84 % 1006,4 hPa 0,0 l/m 0 min 0 min 0,0 UV-I 63 W/m 0,0 km/h (0 Bft)
02.08.2014 07:42 18,7 C 17,2 C 84 % 1006,4 hPa 0,0 l/m 0 min 0 min 0,0 UV-I 52 W/m 0,0 km/h (0 Bft)
02.08.2014 07:44 18,7 C 17,2 C 85 % 1006,5 hPa 0,0 l/m 0 min 0 min 0,0 UV-I 52 W/m 0,0 km/h (0 Bft)
02.08.2014 07:46 18,8 C 17,8 C 84 % 1006,4 hPa 0,0 l/m 0 min 0 min 0,0 UV-I 58 W/m 14,2 km/h (3 Bft)
02.08.2014 07:48 18,8 C 17,8 C 84 % 1006,4 hPa 0,0 l/m 0 min 0 min 0,0 UV-I 63 W/m 0,0 km/h (0 Bft)
02.08.2014 07:50 18,9 C 17,8 C 84 % 1006,4 hPa 0,0 l/m 0 min 0 min 0,0 UV-I 71 W/m 14,2 km/h (3 Bft)
02.08.2014 07:52 18,9 C 17,8 C 85 % 1006,3 hPa 0,0 l/m 0 min 0 min 0,0 UV-I 81 W/m 0,0 km/h (0 Bft)
02.08.2014 07:54 18,9 C 17,8 C 84 % 1006,3 hPa 0,0 l/m 0 min 0 min 0,0 UV-I 93 W/m 0,0 km/h (0 Bft)
02.08.2014 07:56 19,0 C 17,8 C 84 % 1006,3 hPa 0,0 l/m 0 min 0 min 0,0 UV-I 108 W/m 0,0 km/h (0 Bft)
02.08.2014 07:58 19,1 C 18,3 C 84 % 1006,3 hPa 0,0 l/m 0 min 0 min 0,0 UV-I 117 W/m 14,2 km/h (3 Bft)
02.08.2014 08:00 19,1 C 18,3 C 84 % 1006,3 hPa 0,0 l/m 0 min 0 min 0,0 UV-I 125 W/m 14,2 km/h (3 Bft)
02.08.2014 08:02 19,2 C 18,3 C 83 % 1006,3 hPa 0,0 l/m 0 min 0 min 0,0 UV-I 127 W/m 7,1 km/h (2 Bft)
02.08.2014 08:04 19,2 C 18,3 C 83 % 1006,4 hPa 0,0 l/m 0 min 0 min 0,0 UV-I 126 W/m 14,2 km/h (3 Bft)
02.08.2014 08:06 19,3 C 18,3 C 83 % 1006,3 hPa 0,0 l/m 2 min 0 min 0,0 UV-I 165 W/m 0,0 km/h (0 Bft)
02.08.2014 08:08 19,4 C 18,3 C 83 % 1006,3 hPa 0,0 l/m 2 min 0 min 0,0 UV-I 244 W/m 17,7 km/h (3 Bft)
02.08.2014 08:10 19,5 C 18,9 C 83 % 1006,3 hPa 0,0 l/m 2 min 0 min 0,0 UV-I 257 W/m 7,1 km/h (2 Bft)
02.08.2014 08:12 19,6 C 18,9 C 83 % 1006,3 hPa 0,0 l/m 2 min 0 min 0,0 UV-I 251 W/m 14,2 km/h (3 Bft)
02.08.2014 08:14 19,7 C 18,9 C 82 % 1006,3 hPa 0,0 l/m 2 min 0 min 0,0 UV-I 188 W/m 21,3 km/h (4 Bft)
02.08.2014 08:16 19,8 C 18,9 C 82 % 1006,3 hPa 0,0 l/m 2 min 0 min 0,0 UV-I 232 W/m 21,3 km/h (4 Bft)
02.08.2014 08:18 19,9 C 18,9 C 82 % 1006,3 hPa 0,0 l/m 2 min 0 min 0,0 UV-I 204 W/m 21,3 km/h (4 Bft)
02.08.2014 08:20 20,0 C 18,9 C 81 % 1006,3 hPa 0,0 l/m 2 min 0 min 0,0 UV-I 166 W/m 21,3 km/h (4 Bft)
02.08.2014 08:22 20,1 C 18,9 C 81 % 1006,3 hPa 0,0 l/m 2 min 0 min 0,0 UV-I 246 W/m 21,3 km/h (4 Bft)
02.08.2014 08:24 20,2 C 19,4 C 81 % 1006,3 hPa 0,0 l/m 2 min 0 min 0,0 UV-I 208 W/m 14,2 km/h (3 Bft)
02.08.2014 08:26 20,2 C 19,4 C 80 % 1006,3 hPa 0,0 l/m 2 min 0 min 0,0 UV-I 245 W/m 31,7 km/h (5 Bft)
02.08.2014 08:28 20,3 C 19,4 C 80 % 1006,3 hPa 0,0 l/m 2 min 0 min 0,0 UV-I 229 W/m 31,7 km/h (5 Bft)
02.08.2014 08:30 20,3 C 19,4 C 80 % 1006,2 hPa 0,0 l/m 2 min 0 min 0,0 UV-I 198 W/m 14,2 km/h (3 Bft)
02.08.2014 08:32 20,4 C 19,4 C 80 % 1006,3 hPa 0,0 l/m 2 min 0 min 0,0 UV-I 193 W/m 24,7 km/h (4 Bft)
02.08.2014 08:34 20,4 C 19,4 C 80 % 1006,2 hPa 0,0 l/m 2 min 0 min 0,0 UV-I 191 W/m 24,7 km/h (4 Bft)
02.08.2014 08:36 20,5 C 19,4 C 79 % 1006,3 hPa 0,0 l/m 0 min 0 min 0,0 UV-I 175 W/m 28,2 km/h (4 Bft)
02.08.2014 08:38 20,5 C 19,4 C 80 % 1006,3 hPa 0,0 l/m 0 min 0 min 0,0 UV-I 167 W/m 24,7 km/h (4 Bft)
02.08.2014 08:40 20,5 C 19,4 C 80 % 1006,3 hPa 0,0 l/m 2 min 0 min 0,0 UV-I 254 W/m 17,7 km/h (3 Bft)
02.08.2014 08:42 20,6 C 19,4 C 80 % 1006,2 hPa 0,0 l/m 2 min 0 min 0,0 UV-I 308 W/m 17,7 km/h (3 Bft)
02.08.2014 08:44 20,7 C 19,4 C 79 % 1006,3 hPa 0,0 l/m 2 min 0 min 0,0 UV-I 324 W/m 24,7 km/h (4 Bft)
02.08.2014 08:46 20,8 C 20,0 C 80 % 1006,3 hPa 0,0 l/m 2 min 0 min 0,0 UV-I 263 W/m 21,3 km/h (4 Bft)
02.08.2014 08:48 20,9 C 20,0 C 79 % 1006,3 hPa 0,0 l/m 2 min 0 min 0,0 UV-I 260 W/m 21,3 km/h (4 Bft)
02.08.2014 08:50 21,0 C 20,0 C 79 % 1006,3 hPa 0,0 l/m 2 min 0 min 0,0 UV-I 317 W/m 21,3 km/h (4 Bft)
02.08.2014 08:52 21,1 C 20,0 C 79 % 1006,3 hPa 0,0 l/m 2 min 0 min 0,0 UV-I 326 W/m 21,3 km/h (4 Bft)
02.08.2014 08:54 21,2 C 20,0 C 79 % 1006,3 hPa 0,0 l/m 2 min 0 min 0,0 UV-I 401 W/m 24,7 km/h (4 Bft)
02.08.2014 08:56 21,4 C 20,6 C 78 % 1006,3 hPa 0,0 l/m 2 min 0 min 0,0 UV-I 419 W/m 28,2 km/h (4 Bft)
02.08.2014 08:58 21,5 C 20,6 C 78 % 1006,3 hPa 0,0 l/m 2 min 0 min 0,0 UV-I 432 W/m 24,7 km/h (4 Bft)
02.08.2014 09:00 21,7 C 20,6 C 77 % 1006,3 hPa 0,0 l/m 2 min 0 min 0,3 UV-I 466 W/m 35,4 km/h (5 Bft)
02.08.2014 09:02 21,8 C 20,6 C 76 % 1006,3 hPa 0,0 l/m 2 min 0 min 0,5 UV-I 502 W/m 35,4 km/h (5 Bft)
02.08.2014 09:04 21,9 C 21,1 C 76 % 1006,3 hPa 0,0 l/m 2 min 0 min 0,6 UV-I 492 W/m 35,4 km/h (5 Bft)
02.08.2014 09:06 22,1 C 21,1 C 76 % 1006,3 hPa 0,0 l/m 2 min 0 min 0,3 UV-I 410 W/m 35,4 km/h (5 Bft)
02.08.2014 09:08 22,2 C 21,1 C 76 % 1006,3 hPa 0,0 l/m 2 min 0 min 0,4 UV-I 287 W/m 35,4 km/h (5 Bft)
02.08.2014 09:10 22,2 C 21,1 C 75 % 1006,3 hPa 0,0 l/m 2 min 0 min 0,5 UV-I 309 W/m 24,7 km/h (4 Bft)
02.08.2014 09:12 22,3 C 21,1 C 76 % 1006,3 hPa 0,0 l/m 2 min 0 min 0,5 UV-I 264 W/m 31,7 km/h (5 Bft)
02.08.2014 09:14 22,3 C 21,1 C 75 % 1006,3 hPa 0,0 l/m 2 min 0 min 0,5 UV-I 240 W/m 31,7 km/h (5 Bft)
02.08.2014 09:16 22,3 C 21,1 C 75 % 1006,3 hPa 0,0 l/m 2 min 0 min 0,5 UV-I 245 W/m 24,7 km/h (4 Bft)
02.08.2014 09:18 22,3 C 21,1 C 75 % 1006,3 hPa 0,0 l/m 0 min 0 min 0,5 UV-I 192 W/m 24,7 km/h (4 Bft)
02.08.2014 09:20 22,3 C 21,1 C 75 % 1006,3 hPa 0,0 l/m 0 min 0 min 0,5 UV-I 190 W/m 24,7 km/h (4 Bft)
02.08.2014 09:22 22,2 C 21,1 C 75 % 1006,2 hPa 0,0 l/m 0 min 0 min 0,5 UV-I 193 W/m 24,7 km/h (4 Bft)
02.08.2014 09:24 22,2 C 21,1 C 75 % 1006,2 hPa 0,0 l/m 0 min 0 min 0,6 UV-I 183 W/m 21,3 km/h (4 Bft)
02.08.2014 09:26 22,2 C 21,1 C 76 % 1006,2 hPa 0,0 l/m 0 min 0 min 0,6 UV-I 189 W/m 21,3 km/h (4 Bft)
02.08.2014 09:28 22,2 C 21,1 C 75 % 1006,2 hPa 0,0 l/m 0 min 0 min 0,6 UV-I 206 W/m 31,7 km/h (5 Bft)
02.08.2014 09:30 22,3 C 21,1 C 75 % 1006,2 hPa 0,0 l/m 0 min 0 min 0,7 UV-I 235 W/m 28,2 km/h (4 Bft)
02.08.2014 09:32 22,3 C 21,1 C 76 % 1006,2 hPa 0,0 l/m 0 min 0 min 0,7 UV-I 220 W/m 14,2 km/h (3 Bft)
02.08.2014 09:34 22,4 C 21,1 C 76 % 1006,2 hPa 0,0 l/m 0 min 0 min 0,7 UV-I 229 W/m 17,7 km/h (3 Bft)
02.08.2014 09:36 22,4 C 21,1 C 76 % 1006,2 hPa 0,0 l/m 0 min 0 min 0,7 UV-I 236 W/m 24,7 km/h (4 Bft)
02.08.2014 09:38 22,5 C 21,7 C 75 % 1006,2 hPa 0,0 l/m 0 min 0 min 0,9 UV-I 241 W/m 24,7 km/h (4 Bft)
02.08.2014 09:40 22,6 C 21,7 C 75 % 1006,1 hPa 0,0 l/m 2 min 0 min 0,8 UV-I 318 W/m 28,2 km/h (4 Bft)
02.08.2014 09:42 22,7 C 21,7 C 75 % 1006,2 hPa 0,0 l/m 2 min 0 min 0,9 UV-I 274 W/m 31,7 km/h (5 Bft)
02.08.2014 09:44 22,8 C 22,2 C 74 % 1006,1 hPa 0,0 l/m 2 min 0 min 0,8 UV-I 275 W/m 31,7 km/h (5 Bft)
02.08.2014 09:46 22,8 C 22,2 C 74 % 1006,2 hPa 0,0 l/m 0 min 0 min 0,8 UV-I 257 W/m 28,2 km/h (4 Bft)
02.08.2014 09:48 22,9 C 22,2 C 75 % 1006,2 hPa 0,0 l/m 0 min 0 min 0,8 UV-I 260 W/m 17,7 km/h (3 Bft)
02.08.2014 09:50 22,9 C 22,2 C 74 % 1006,1 hPa 0,0 l/m 0 min 0 min 0,9 UV-I 268 W/m 28,2 km/h (4 Bft)
02.08.2014 09:52 22,9 C 22,2 C 74 % 1006,2 hPa 0,0 l/m 0 min 0 min 0,9 UV-I 267 W/m 28,2 km/h (4 Bft)
02.08.2014 09:54 23,0 C 22,8 C 74 % 1006,2 hPa 0,0 l/m 0 min 0 min 1,1 UV-I 268 W/m 28,2 km/h (4 Bft)
02.08.2014 09:56 23,0 C 22,8 C 74 % 1006,1 hPa 0,0 l/m 0 min 0 min 1,1 UV-I 266 W/m 17,7 km/h (3 Bft)
02.08.2014 09:58 23,1 C 23,3 C 74 % 1006,2 hPa 0,0 l/m 2 min 0 min 1,3 UV-I 343 W/m 21,3 km/h (4 Bft)
02.08.2014 10:00 23,2 C 23,9 C 73 % 1006,1 hPa 0,0 l/m 2 min 0 min 1,4 UV-I 319 W/m 24,7 km/h (4 Bft)
02.08.2014 10:02 23,3 C 25,0 C 74 % 1006,1 hPa 0,0 l/m 2 min 0 min 1,8 UV-I 371 W/m 28,2 km/h (4 Bft)
02.08.2014 10:04 23,7 C 26,7 C 73 % 1006,1 hPa 0,0 l/m 2 min 0 min 2,0 UV-I 678 W/m 24,7 km/h (4 Bft)
02.08.2014 10:06 24,0 C 27,8 C 71 % 1006,1 hPa 0,0 l/m 2 min 0 min 2,0 UV-I 675 W/m 28,2 km/h (4 Bft)
02.08.2014 10:08 24,4 C 28,3 C 73 % 1006,1 hPa 0,0 l/m 2 min 0 min 2,1 UV-I 685 W/m 24,7 km/h (4 Bft)
02.08.2014 10:10 24,7 C 28,3 C 70 % 1006,0 hPa 0,0 l/m 2 min 0 min 2,1 UV-I 676 W/m 35,4 km/h (5 Bft)
02.08.2014 10:12 24,8 C 28,3 C 70 % 1006,0 hPa 0,0 l/m 2 min 0 min 2,0 UV-I 642 W/m 24,7 km/h (4 Bft)
02.08.2014 10:14 24,9 C 27,2 C 69 % 1006,0 hPa 0,0 l/m 2 min 0 min 1,9 UV-I 557 W/m 24,7 km/h (4 Bft)
02.08.2014 10:16 24,9 C 27,8 C 68 % 1006,0 hPa 0,0 l/m 2 min 0 min 2,0 UV-I 484 W/m 35,4 km/h (5 Bft)
02.08.2014 10:18 25,1 C 27,8 C 69 % 1006,0 hPa 0,0 l/m 2 min 0 min 2,0 UV-I 692 W/m 31,7 km/h (5 Bft)
02.08.2014 10:20 25,2 C 28,3 C 67 % 1005,9 hPa 0,0 l/m 2 min 0 min 2,1 UV-I 648 W/m 38,9 km/h (6 Bft)
02.08.2014 10:22 25,3 C 28,3 C 67 % 1005,9 hPa 0,0 l/m 2 min 0 min 2,1 UV-I 665 W/m 24,7 km/h (4 Bft)
02.08.2014 10:24 25,4 C 28,3 C 67 % 1005,9 hPa 0,0 l/m 2 min 0 min 2,3 UV-I 633 W/m 28,2 km/h (4 Bft)
02.08.2014 10:26 25,5 C 28,3 C 67 % 1005,8 hPa 0,0 l/m 2 min 0 min 2,3 UV-I 638 W/m 28,2 km/h (4 Bft)
02.08.2014 10:28 25,7 C 28,9 C 67 % 1005,8 hPa 0,0 l/m 2 min 0 min 2,4 UV-I 627 W/m 31,7 km/h (5 Bft)
02.08.2014 10:30 25,7 C 28,9 C 65 % 1005,7 hPa 0,0 l/m 2 min 0 min 2,5 UV-I 640 W/m 38,9 km/h (6 Bft)
02.08.2014 10:32 25,7 C 29,4 C 65 % 1005,8 hPa 0,0 l/m 2 min 0 min 2,5 UV-I 639 W/m 31,7 km/h (5 Bft)
02.08.2014 10:34 25,8 C 29,4 C 64 % 1005,7 hPa 0,0 l/m 2 min 0 min 2,6 UV-I 641 W/m 38,9 km/h (6 Bft)
02.08.2014 10:36 25,9 C 28,9 C 64 % 1005,8 hPa 0,0 l/m 2 min 0 min 2,6 UV-I 646 W/m 38,9 km/h (6 Bft)
02.08.2014 10:38 25,9 C 28,9 C 63 % 1005,7 hPa 0,0 l/m 2 min 0 min 2,7 UV-I 648 W/m 42,4 km/h (6 Bft)
02.08.2014 10:40 25,9 C 28,9 C 64 % 1005,7 hPa 0,0 l/m 2 min 0 min 2,7 UV-I 636 W/m 31,7 km/h (5 Bft)
02.08.2014 10:42 25,9 C 28,9 C 63 % 1005,6 hPa 0,0 l/m 2 min 0 min 2,6 UV-I 602 W/m 38,9 km/h (6 Bft)
02.08.2014 10:44 25,9 C 28,3 C 64 % 1005,7 hPa 0,0 l/m 2 min 0 min 2,6 UV-I 628 W/m 31,7 km/h (5 Bft)
02.08.2014 10:46 25,9 C 28,3 C 64 % 1005,7 hPa 0,0 l/m 2 min 0 min 2,8 UV-I 644 W/m 38,9 km/h (6 Bft)
02.08.2014 10:48 26,1 C 27,8 C 65 % 1005,7 hPa 0,0 l/m 2 min 0 min 2,9 UV-I 646 W/m 28,2 km/h (4 Bft)
02.08.2014 10:50 26,2 C 27,8 C 65 % 1005,6 hPa 0,0 l/m 2 min 0 min 2,9 UV-I 663 W/m 31,7 km/h (5 Bft)
02.08.2014 10:52 26,3 C 27,8 C 64 % 1005,7 hPa 0,0 l/m 2 min 0 min 2,9 UV-I 645 W/m 38,9 km/h (6 Bft)
02.08.2014 10:54 26,4 C 28,3 C 65 % 1005,6 hPa 0,0 l/m 2 min 0 min 2,7 UV-I 656 W/m 24,7 km/h (4 Bft)
02.08.2014 10:56 26,6 C 28,3 C 63 % 1005,6 hPa 0,0 l/m 2 min 0 min 2,1 UV-I 676 W/m 24,7 km/h (4 Bft)
02.08.2014 10:58 26,7 C 28,3 C 64 % 1005,6 hPa 0,0 l/m 2 min 0 min 2,4 UV-I 653 W/m 28,2 km/h (4 Bft)
02.08.2014 11:00 26,7 C 28,3 C 62 % 1005,6 hPa 0,0 l/m 2 min 0 min 2,8 UV-I 577 W/m 28,2 km/h (4 Bft)
02.08.2014 11:02 26,8 C 28,9 C 63 % 1005,6 hPa 0,0 l/m 2 min 0 min 3,0 UV-I 625 W/m 28,2 km/h (4 Bft)
02.08.2014 11:04 26,7 C 28,9 C 61 % 1005,6 hPa 0,0 l/m 2 min 0 min 3,1 UV-I 651 W/m 42,4 km/h (6 Bft)
02.08.2014 11:06 26,7 C 28,9 C 60 % 1005,5 hPa 0,0 l/m 2 min 0 min 3,1 UV-I 649 W/m 31,7 km/h (5 Bft)
02.08.2014 11:08 26,7 C 28,3 C 62 % 1005,5 hPa 0,0 l/m 2 min 0 min 3,1 UV-I 647 W/m 35,4 km/h (5 Bft)
02.08.2014 11:10 26,6 C 27,8 C 61 % 1005,5 hPa 0,0 l/m 2 min 0 min 3,2 UV-I 664 W/m 46,0 km/h (6 Bft)
02.08.2014 11:12 26,7 C 27,8 C 62 % 1005,6 hPa 0,0 l/m 2 min 0 min 3,3 UV-I 671 W/m 31,7 km/h (5 Bft)
02.08.2014 11:14 26,7 C 27,8 C 60 % 1005,5 hPa 0,0 l/m 2 min 0 min 3,2 UV-I 644 W/m 46,0 km/h (6 Bft)
02.08.2014 11:16 26,7 C 27,2 C 60 % 1005,5 hPa 0,0 l/m 2 min 0 min 3,2 UV-I 626 W/m 31,7 km/h (5 Bft)
02.08.2014 11:18 26,7 C 27,2 C 60 % 1005,5 hPa 0,0 l/m 2 min 0 min 3,2 UV-I 618 W/m 35,4 km/h (5 Bft)
02.08.2014 11:20 26,9 C 27,2 C 62 % 1005,5 hPa 0,0 l/m 2 min 0 min 3,3 UV-I 661 W/m 28,2 km/h (4 Bft)
02.08.2014 11:22 27,1 C 27,2 C 60 % 1005,4 hPa 0,0 l/m 2 min 0 min 3,4 UV-I 673 W/m 31,7 km/h (5 Bft)
02.08.2014 11:24 27,2 C 26,7 C 59 % 1005,4 hPa 0,0 l/m 2 min 0 min 3,4 UV-I 675 W/m 53,0 km/h (7 Bft)
02.08.2014 11:26 27,2 C 26,7 C 60 % 1005,4 hPa 0,0 l/m 2 min 0 min 3,6 UV-I 691 W/m 46,0 km/h (6 Bft)
02.08.2014 11:28 27,2 C 26,7 C 59 % 1005,4 hPa 0,0 l/m 2 min 0 min 3,6 UV-I 699 W/m 38,9 km/h (6 Bft)
02.08.2014 11:30 27,1 C 26,7 C 59 % 1005,4 hPa 0,0 l/m 2 min 0 min 3,6 UV-I 710 W/m 38,9 km/h (6 Bft)
02.08.2014 11:32 27,2 C 26,7 C 59 % 1005,4 hPa 0,0 l/m 2 min 0 min 3,6 UV-I 721 W/m 42,4 km/h (6 Bft)
02.08.2014 11:34 27,2 C 26,7 C 59 % 1005,4 hPa 0,0 l/m 2 min 0 min 2,2 UV-I 569 W/m 38,9 km/h (6 Bft)
02.08.2014 11:36 27,0 C 26,7 C 58 % 1005,4 hPa 0,0 l/m 2 min 0 min 2,6 UV-I 399 W/m 28,2 km/h (4 Bft)
02.08.2014 11:38 26,9 C 26,7 C 60 % 1005,4 hPa 0,0 l/m 2 min 0 min 3,1 UV-I 518 W/m 24,7 km/h (4 Bft)
02.08.2014 11:40 26,9 C 27,2 C 62 % 1005,4 hPa 0,0 l/m 2 min 0 min 3,7 UV-I 696 W/m 24,7 km/h (4 Bft)
02.08.2014 11:42 27,1 C 27,8 C 60 % 1005,4 hPa 0,0 l/m 2 min 0 min 3,6 UV-I 698 W/m 35,4 km/h (5 Bft)
02.08.2014 11:44 27,1 C 27,8 C 59 % 1005,3 hPa 0,0 l/m 2 min 0 min 3,4 UV-I 594 W/m 35,4 km/h (5 Bft)
02.08.2014 11:46 27,1 C 27,8 C 58 % 1005,2 hPa 0,0 l/m 2 min 0 min 3,1 UV-I 627 W/m 49,5 km/h (6 Bft)
02.08.2014 11:48 27,1 C 27,8 C 60 % 1005,2 hPa 0,0 l/m 2 min 0 min 3,1 UV-I 568 W/m 46,0 km/h (6 Bft)
02.08.2014 11:50 27,0 C 27,2 C 60 % 1005,3 hPa 0,0 l/m 2 min 0 min 3,1 UV-I 442 W/m 38,9 km/h (6 Bft)
02.08.2014 11:52 26,9 C 26,7 C 60 % 1005,3 hPa 0,0 l/m 0 min 0 min 2,8 UV-I 363 W/m 35,4 km/h (5 Bft)
02.08.2014 11:54 26,8 C 27,2 C 60 % 1005,3 hPa 0,0 l/m 2 min 0 min 3,3 UV-I 435 W/m 46,0 km/h (6 Bft)
02.08.2014 11:56 26,9 C 27,8 C 61 % 1005,3 hPa 0,0 l/m 2 min 0 min 4,0 UV-I 552 W/m 38,9 km/h (6 Bft)
02.08.2014 11:58 27,1 C 28,3 C 61 % 1005,2 hPa 0,0 l/m 2 min 0 min 4,0 UV-I 773 W/m 38,9 km/h (6 Bft)
02.08.2014 12:00 27,3 C 28,9 C 61 % 1005,2 hPa 0,0 l/m 2 min 0 min 4,1 UV-I 789 W/m 31,7 km/h (5 Bft)
02.08.2014 12:02 27,4 C 28,9 C 62 % 1005,1 hPa 0,0 l/m 2 min 0 min 3,8 UV-I 805 W/m 24,7 km/h (4 Bft)
02.08.2014 12:05 27,6 C 28,9 C 60 % 1005,1 hPa 0,0 l/m 2 min 0 min 3,8 UV-I 806 W/m 56,5 km/h (7 Bft)
02.08.2014 12:06 27,6 C 29,4 C 58 % 1005,1 hPa 0,0 l/m 1 min 0 min 4,2 UV-I 814 W/m 38,9 km/h (6 Bft)
02.08.2014 12:08 27,6 C 30,0 C 59 % 1005,0 hPa 0,0 l/m 2 min 0 min 4,4 UV-I 797 W/m 49,5 km/h (6 Bft)
02.08.2014 12:10 27,6 C 29,4 C 59 % 1005,0 hPa 0,0 l/m 2 min 0 min 4,1 UV-I 712 W/m 38,9 km/h (6 Bft)
02.08.2014 12:12 27,7 C 28,9 C 59 % 1004,9 hPa 0,0 l/m 2 min 0 min 4,1 UV-I 597 W/m 49,5 km/h (6 Bft)
02.08.2014 12:14 27,7 C 28,3 C 58 % 1005,0 hPa 0,0 l/m 2 min 0 min 3,3 UV-I 584 W/m 49,5 km/h (6 Bft)
02.08.2014 12:16 27,6 C 28,3 C 58 % 1005,0 hPa 0,0 l/m 2 min 0 min 3,6 UV-I 438 W/m 49,5 km/h (6 Bft)
02.08.2014 12:18 27,4 C 28,3 C 58 % 1004,9 hPa 0,0 l/m 2 min 0 min 3,7 UV-I 447 W/m 42,4 km/h (6 Bft)
02.08.2014 12:20 27,6 C 28,9 C 59 % 1005,0 hPa 0,0 l/m 2 min 0 min 4,1 UV-I 473 W/m 35,4 km/h (5 Bft)
02.08.2014 12:22 27,7 C 29,4 C 60 % 1004,9 hPa 0,0 l/m 2 min 0 min 4,1 UV-I 785 W/m 38,9 km/h (6 Bft)
02.08.2014 12:24 27,7 C 28,9 C 58 % 1004,9 hPa 0,0 l/m 2 min 0 min 3,7 UV-I 757 W/m 38,9 km/h (6 Bft)
02.08.2014 12:26 27,7 C 28,9 C 57 % 1004,9 hPa 0,0 l/m 0 min 0 min 3,2 UV-I 331 W/m 31,7 km/h (5 Bft)
02.08.2014 12:28 28,0 C 30,0 C 58 % 1004,9 hPa 0,0 l/m 2 min 0 min 3,6 UV-I 581 W/m 24,7 km/h (4 Bft)
02.08.2014 12:30 28,2 C 30,0 C 58 % 1004,8 hPa 0,0 l/m 2 min 0 min 3,6 UV-I 697 W/m 46,0 km/h (6 Bft)
02.08.2014 12:32 28,2 C 30,0 C 58 % 1004,9 hPa 0,0 l/m 2 min 0 min 4,3 UV-I 650 W/m 38,9 km/h (6 Bft)
02.08.2014 12:34 28,4 C 30,6 C 60 % 1004,9 hPa 0,0 l/m 2 min 0 min 4,6 UV-I 798 W/m 21,3 km/h (4 Bft)
02.08.2014 12:36 28,6 C 30,6 C 59 % 1004,9 hPa 0,0 l/m 2 min 0 min 3,8 UV-I 749 W/m 31,7 km/h (5 Bft)
02.08.2014 12:38 28,6 C 30,6 C 57 % 1004,8 hPa 0,0 l/m 2 min 0 min 4,4 UV-I 710 W/m 24,7 km/h (4 Bft)
02.08.2014 12:40 28,6 C 30,6 C 58 % 1004,9 hPa 0,0 l/m 2 min 0 min 4,3 UV-I 666 W/m 38,9 km/h (6 Bft)
02.08.2014 12:42 28,7 C 30,0 C 59 % 1004,9 hPa 0,0 l/m 2 min 0 min 4,5 UV-I 726 W/m 31,7 km/h (5 Bft)
02.08.2014 12:44 28,7 C 30,0 C 59 % 1004,9 hPa 0,0 l/m 2 min 0 min 4,6 UV-I 757 W/m 24,7 km/h (4 Bft)
02.08.2014 12:46 28,8 C 30,6 C 58 % 1004,9 hPa 0,0 l/m 2 min 0 min 4,7 UV-I 764 W/m 31,7 km/h (5 Bft)
02.08.2014 12:48 28,9 C 30,0 C 56 % 1005,0 hPa 0,0 l/m 2 min 0 min 4,7 UV-I 756 W/m 49,5 km/h (6 Bft)
02.08.2014 12:50 29,1 C 30,0 C 55 % 1005,0 hPa 0,0 l/m 2 min 0 min 4,8 UV-I 775 W/m 38,9 km/h (6 Bft)
02.08.2014 12:52 29,1 C 30,0 C 55 % 1005,0 hPa 0,0 l/m 2 min 0 min 4,1 UV-I 758 W/m 28,2 km/h (4 Bft)
02.08.2014 12:54 29,1 C 30,0 C 54 % 1004,9 hPa 0,0 l/m 2 min 0 min 3,1 UV-I 687 W/m 31,7 km/h (5 Bft)
02.08.2014 12:56 28,9 C 29,4 C 56 % 1004,9 hPa 0,0 l/m 2 min 0 min 4,0 UV-I 614 W/m 38,9 km/h (6 Bft)
02.08.2014 12:58 28,9 C 29,4 C 56 % 1004,8 hPa 0,0 l/m 2 min 0 min 4,6 UV-I 712 W/m 42,4 km/h (6 Bft)
02.08.2014 13:00 28,9 C 28,9 C 54 % 1004,8 hPa 0,0 l/m 2 min 0 min 4,7 UV-I 751 W/m 31,7 km/h (5 Bft)
02.08.2014 13:02 28,8 C 28,9 C 56 % 1004,7 hPa 0,0 l/m 2 min 0 min 4,6 UV-I 729 W/m 38,9 km/h (6 Bft)
02.08.2014 13:04 28,9 C 28,9 C 55 % 1004,8 hPa 0,0 l/m 2 min 0 min 4,7 UV-I 747 W/m 38,9 km/h (6 Bft)
02.08.2014 13:06 28,9 C 28,9 C 56 % 1004,7 hPa 0,0 l/m 2 min 0 min 4,5 UV-I 758 W/m 35,4 km/h (5 Bft)
02.08.2014 13:08 29,1 C 28,9 C 56 % 1004,8 hPa 0,0 l/m 2 min 0 min 4,3 UV-I 732 W/m 24,7 km/h (4 Bft)
02.08.2014 13:10 29,2 C 28,9 C 55 % 1004,8 hPa 0,0 l/m 2 min 0 min 4,4 UV-I 716 W/m 31,7 km/h (5 Bft)
02.08.2014 13:12 29,1 C 28,3 C 53 % 1004,8 hPa 0,0 l/m 2 min 0 min 3,7 UV-I 616 W/m 42,4 km/h (6 Bft)
02.08.2014 13:14 28,8 C 28,3 C 56 % 1004,8 hPa 0,0 l/m 0 min 0 min 3,4 UV-I 285 W/m 42,4 km/h (6 Bft)
02.08.2014 13:16 28,8 C 28,3 C 56 % 1004,8 hPa 0,0 l/m 2 min 0 min 4,0 UV-I 668 W/m 38,9 km/h (6 Bft)
02.08.2014 13:18 28,7 C 27,8 C 55 % 1004,8 hPa 0,0 l/m 2 min 0 min 2,5 UV-I 537 W/m 46,0 km/h (6 Bft)
02.08.2014 13:20 28,5 C 27,2 C 55 % 1004,7 hPa 0,0 l/m 0 min 0 min 1,8 UV-I 181 W/m 35,4 km/h (5 Bft)
02.08.2014 13:22 28,2 C 26,7 C 54 % 1004,7 hPa 0,0 l/m 0 min 0 min 1,6 UV-I 161 W/m 42,4 km/h (6 Bft)
02.08.2014 13:24 27,8 C 26,7 C 56 % 1004,7 hPa 0,0 l/m 0 min 0 min 1,6 UV-I 176 W/m 35,4 km/h (5 Bft)
02.08.2014 13:26 27,6 C 26,7 C 57 % 1004,6 hPa 0,0 l/m 0 min 0 min 1,7 UV-I 193 W/m 31,7 km/h (5 Bft)
02.08.2014 13:28 27,4 C 26,1 C 57 % 1004,5 hPa 0,0 l/m 0 min 0 min 1,8 UV-I 215 W/m 42,4 km/h (6 Bft)
02.08.2014 13:30 27,4 C 26,1 C 58 % 1004,6 hPa 0,0 l/m 0 min 0 min 2,0 UV-I 248 W/m 46,0 km/h (6 Bft)
02.08.2014 13:32 27,4 C 26,1 C 59 % 1004,6 hPa 0,0 l/m 0 min 0 min 2,1 UV-I 268 W/m 21,3 km/h (4 Bft)
02.08.2014 13:34 27,4 C 26,7 C 58 % 1004,5 hPa 0,0 l/m 0 min 0 min 2,4 UV-I 283 W/m 24,7 km/h (4 Bft)
02.08.2014 13:36 27,5 C 26,7 C 57 % 1004,5 hPa 0,0 l/m 0 min 0 min 2,4 UV-I 304 W/m 46,0 km/h (6 Bft)
02.08.2014 13:38 27,6 C 26,7 C 57 % 1004,4 hPa 0,0 l/m 0 min 0 min 2,3 UV-I 376 W/m 38,9 km/h (6 Bft)
02.08.2014 13:40 27,7 C 26,7 C 59 % 1004,4 hPa 0,0 l/m 0 min 0 min 2,5 UV-I 361 W/m 24,7 km/h (4 Bft)
02.08.2014 13:42 27,7 C 26,7 C 59 % 1004,5 hPa 0,0 l/m 0 min 0 min 1,8 UV-I 196 W/m 31,7 km/h (5 Bft)
02.08.2014 13:44 27,6 C 26,1 C 59 % 1004,6 hPa 0,0 l/m 0 min 0 min 1,4 UV-I 166 W/m 31,7 km/h (5 Bft)
02.08.2014 13:46 27,5 C 26,1 C 58 % 1004,6 hPa 0,0 l/m 0 min 0 min 1,3 UV-I 160 W/m 31,7 km/h (5 Bft)
02.08.2014 13:48 27,4 C 26,1 C 58 % 1004,6 hPa 0,0 l/m 0 min 0 min 1,2 UV-I 165 W/m 28,2 km/h (4 Bft)
02.08.2014 13:50 27,3 C 26,1 C 58 % 1004,7 hPa 0,0 l/m 0 min 0 min 1,2 UV-I 167 W/m 24,7 km/h (4 Bft)
02.08.2014 13:52 27,2 C 25,6 C 58 % 1004,7 hPa 0,0 l/m 0 min 0 min 1,1 UV-I 162 W/m 17,7 km/h (3 Bft)
02.08.2014 13:54 27,2 C 25,6 C 59 % 1004,7 hPa 0,0 l/m 0 min 0 min 1,0 UV-I 154 W/m 28,2 km/h (4 Bft)
02.08.2014 13:56 27,1 C 25,6 C 59 % 1004,7 hPa 0,0 l/m 0 min 0 min 1,0 UV-I 149 W/m 24,7 km/h (4 Bft)
02.08.2014 13:58 27,0 C 25,6 C 58 % 1004,6 hPa 0,0 l/m 0 min 0 min 0,9 UV-I 148 W/m 21,3 km/h (4 Bft)
02.08.2014 14:00 26,9 C 25,6 C 57 % 1004,6 hPa 0,0 l/m 0 min 0 min 0,8 UV-I 141 W/m 24,7 km/h (4 Bft)
02.08.2014 14:02 26,9 C 25,6 C 59 % 1004,6 hPa 0,0 l/m 0 min 0 min 0,8 UV-I 131 W/m 14,2 km/h (3 Bft)
02.08.2014 14:04 26,8 C 25,6 C 59 % 1004,5 hPa 0,0 l/m 0 min 0 min 0,6 UV-I 125 W/m 14,2 km/h (3 Bft)
02.08.2014 14:06 26,7 C 25,0 C 60 % 1004,5 hPa 0,0 l/m 0 min 0 min 0,6 UV-I 116 W/m 17,7 km/h (3 Bft)
02.08.2014 14:08 26,7 C 25,0 C 60 % 1004,4 hPa 0,0 l/m 0 min 0 min 0,5 UV-I 112 W/m 21,3 km/h (4 Bft)
02.08.2014 14:10 26,6 C 25,0 C 61 % 1004,4 hPa 0,0 l/m 0 min 0 min 0,4 UV-I 108 W/m 28,2 km/h (4 Bft)
02.08.2014 14:12 26,5 C 24,4 C 61 % 1004,4 hPa 0,0 l/m 0 min 0 min 0,0 UV-I 99 W/m 28,2 km/h (4 Bft)
02.08.2014 14:14 26,2 C 24,4 C 61 % 1004,4 hPa 0,0 l/m 0 min 0 min 0,0 UV-I 89 W/m 38,9 km/h (6 Bft)
02.08.2014 14:16 25,9 C 23,9 C 63 % 1004,6 hPa 0,0 l/m 0 min 0 min 0,0 UV-I 81 W/m 63,7 km/h (8 Bft)
02.08.2014 14:18 25,5 C 23,3 C 65 % 1004,3 hPa 0,0 l/m 0 min 2 min 0,0 UV-I 76 W/m 70,6 km/h (8 Bft)
02.08.2014 14:20 25,1 C 20,6 C 68 % 1004,5 hPa 0,4 l/m 0 min 2 min 0,0 UV-I 66 W/m 67,1 km/h (8 Bft)
02.08.2014 14:22 24,1 C 18,9 C 73 % 1004,7 hPa 0,8 l/m 0 min 2 min 0,0 UV-I 54 W/m 53,0 km/h (7 Bft)
02.08.2014 14:24 23,3 C 18,3 C 76 % 1004,6 hPa 0,6 l/m 0 min 2 min 0,0 UV-I 48 W/m 38,9 km/h (6 Bft)
02.08.2014 14:26 22,6 C 18,3 C 79 % 1004,6 hPa 0,4 l/m 0 min 2 min 0,0 UV-I 49 W/m 28,2 km/h (4 Bft)
02.08.2014 14:28 22,1 C 18,3 C 82 % 1004,8 hPa 0,0 l/m 0 min 2 min 0,0 UV-I 48 W/m 38,9 km/h (6 Bft)
02.08.2014 14:30 21,7 C 18,3 C 83 % 1004,9 hPa 0,8 l/m 0 min 2 min 0,0 UV-I 46 W/m 38,9 km/h (6 Bft)
02.08.2014 14:32 21,3 C 18,3 C 84 % 1004,6 hPa 0,4 l/m 0 min 2 min 0,0 UV-I 46 W/m 21,3 km/h (4 Bft)
02.08.2014 14:34 21,0 C 17,8 C 84 % 1004,6 hPa 0,2 l/m 0 min 2 min 0,0 UV-I 42 W/m 10,7 km/h (2 Bft)
02.08.2014 14:36 20,8 C 18,3 C 86 % 1004,7 hPa 0,2 l/m 0 min 2 min 0,0 UV-I 38 W/m 21,3 km/h (4 Bft)
02.08.2014 14:38 20,7 C 17,8 C 86 % 1004,8 hPa 0,2 l/m 0 min 2 min 0,0 UV-I 31 W/m 24,7 km/h (4 Bft)
02.08.2014 14:40 20,5 C 17,8 C 87 % 1004,9 hPa 0,4 l/m 0 min 2 min 0,0 UV-I 25 W/m 38,9 km/h (6 Bft)
02.08.2014 14:42 20,3 C 17,2 C 86 % 1005,3 hPa 0,8 l/m 0 min 2 min 0,0 UV-I 21 W/m 35,4 km/h (5 Bft)
02.08.2014 14:44 20,1 C 17,2 C 86 % 1005,4 hPa 1,0 l/m 0 min 2 min 0,0 UV-I 18 W/m 60,2 km/h (7 Bft)
02.08.2014 14:46 19,8 C 16,7 C 87 % 1005,7 hPa 1,8 l/m 0 min 2 min 0,0 UV-I 15 W/m 70,6 km/h (8 Bft)
02.08.2014 14:48 19,6 C 16,7 C 87 % 1005,7 hPa 2,2 l/m 0 min 2 min 0,0 UV-I 14 W/m 46,0 km/h (6 Bft)
02.08.2014 14:50 19,3 C 16,1 C 87 % 1005,7 hPa 0,6 l/m 0 min 2 min 0,0 UV-I 14 W/m 31,7 km/h (5 Bft)
02.08.2014 14:52 19,1 C 16,1 C 87 % 1005,7 hPa 1,6 l/m 0 min 2 min 0,0 UV-I 16 W/m 63,7 km/h (8 Bft)
02.08.2014 14:54 18,9 C 16,1 C 88 % 1005,5 hPa 3,2 l/m 0 min 2 min 0,0 UV-I 21 W/m 49,5 km/h (6 Bft)
02.08.2014 14:56 18,7 C 16,1 C 89 % 1005,6 hPa 1,2 l/m 0 min 2 min 0,0 UV-I 33 W/m 31,7 km/h (5 Bft)
02.08.2014 14:58 18,5 C 16,1 C 91 % 1005,8 hPa 1,6 l/m 0 min 2 min 0,0 UV-I 36 W/m 21,3 km/h (4 Bft)
02.08.2014 15:00 18,3 C 16,1 C 91 % 1005,7 hPa 0,6 l/m 0 min 2 min 0,0 UV-I 35 W/m 10,7 km/h (2 Bft)
02.08.2014 15:02 18,2 C 16,7 C 92 % 1005,7 hPa 1,4 l/m 0 min 2 min 0,0 UV-I 28 W/m 17,7 km/h (3 Bft)
02.08.2014 15:04 18,2 C 16,7 C 93 % 1006,1 hPa 3,2 l/m 0 min 2 min 0,0 UV-I 24 W/m 21,3 km/h (4 Bft)
02.08.2014 15:06 18,2 C 16,7 C 93 % 1006,1 hPa 2,8 l/m 0 min 2 min 0,0 UV-I 24 W/m 21,3 km/h (4 Bft)
02.08.2014 15:08 18,2 C 16,7 C 94 % 1006,0 hPa 2,8 l/m 0 min 2 min 0,0 UV-I 30 W/m 17,7 km/h (3 Bft)
02.08.2014 15:10 18,3 C 16,7 C 94 % 1005,7 hPa 1,8 l/m 0 min 2 min 0,0 UV-I 48 W/m 7,1 km/h (2 Bft)
02.08.2014 15:12 18,4 C 16,7 C 95 % 1005,6 hPa 2,2 l/m 0 min 2 min 0,0 UV-I 92 W/m 10,7 km/h (2 Bft)
02.08.2014 15:14 18,5 C 17,2 C 95 % 1005,4 hPa 1,0 l/m 0 min 2 min 0,0 UV-I 146 W/m 21,3 km/h (4 Bft)
02.08.2014 15:16 18,7 C 17,2 C 96 % 1005,3 hPa 0,4 l/m 0 min 2 min 0,1 UV-I 166 W/m 21,3 km/h (4 Bft)
02.08.2014 15:18 18,7 C 17,2 C 96 % 1005,4 hPa 0,0 l/m 0 min 2 min 0,7 UV-I 189 W/m 24,7 km/h (4 Bft)
02.08.2014 15:20 18,7 C 17,8 C 96 % 1005,4 hPa 0,0 l/m 0 min 0 min 0,7 UV-I 205 W/m 24,7 km/h (4 Bft)
02.08.2014 15:22 18,6 C 17,8 C 96 % 1005,4 hPa 0,0 l/m 0 min 0 min 0,9 UV-I 216 W/m 24,7 km/h (4 Bft)
02.08.2014 15:24 18,7 C 17,8 C 96 % 1005,4 hPa 0,0 l/m 0 min 0 min 1,4 UV-I 253 W/m 21,3 km/h (4 Bft)
02.08.2014 15:26 18,9 C 18,3 C 97 % 1005,4 hPa 0,0 l/m 0 min 0 min 1,0 UV-I 241 W/m 21,3 km/h (4 Bft)
02.08.2014 15:28 18,9 C 17,8 C 97 % 1005,4 hPa 0,0 l/m 0 min 0 min 1,0 UV-I 254 W/m 24,7 km/h (4 Bft)
02.08.2014 15:30 18,9 C 18,3 C 97 % 1005,4 hPa 0,0 l/m 0 min 0 min 0,9 UV-I 234 W/m 17,7 km/h (3 Bft)
02.08.2014 15:32 19,1 C 18,3 C 97 % 1005,1 hPa 0,0 l/m 0 min 0 min 1,1 UV-I 237 W/m 31,7 km/h (5 Bft)
02.08.2014 15:34 19,1 C 18,3 C 97 % 1005,0 hPa 0,0 l/m 0 min 0 min 1,1 UV-I 234 W/m 24,7 km/h (4 Bft)
02.08.2014 15:36 19,1 C 18,3 C 97 % 1005,0 hPa 0,0 l/m 0 min 0 min 1,1 UV-I 240 W/m 21,3 km/h (4 Bft)
02.08.2014 15:38 19,1 C 18,3 C 97 % 1004,9 hPa 0,0 l/m 2 min 0 min 1,6 UV-I 375 W/m 17,7 km/h (3 Bft)
02.08.2014 15:40 19,4 C 18,9 C 97 % 1004,9 hPa 0,0 l/m 2 min 0 min 2,2 UV-I 507 W/m 17,7 km/h (3 Bft)
02.08.2014 15:42 19,8 C 19,4 C 97 % 1004,8 hPa 0,0 l/m 2 min 0 min 2,4 UV-I 492 W/m 21,3 km/h (4 Bft)
02.08.2014 15:44 19,9 C 19,4 C 97 % 1004,8 hPa 0,0 l/m 2 min 0 min 3,1 UV-I 596 W/m 24,7 km/h (4 Bft)
02.08.2014 15:46 20,1 C 19,4 C 97 % 1004,9 hPa 0,0 l/m 2 min 0 min 3,2 UV-I 668 W/m 14,2 km/h (3 Bft)
02.08.2014 15:48 20,6 C 20,0 C 97 % 1004,9 hPa 0,0 l/m 2 min 0 min 3,1 UV-I 661 W/m 14,2 km/h (3 Bft)
02.08.2014 15:50 20,9 C 20,0 C 97 % 1004,9 hPa 0,0 l/m 2 min 0 min 3,2 UV-I 687 W/m 14,2 km/h (3 Bft)
02.08.2014 15:52 20,8 C 19,4 C 95 % 1004,9 hPa 0,0 l/m 2 min 0 min 3,1 UV-I 642 W/m 0,0 km/h (0 Bft)
02.08.2014 15:54 21,0 C 19,4 C 94 % 1004,9 hPa 0,0 l/m 2 min 0 min 3,0 UV-I 612 W/m 0,0 km/h (0 Bft)
02.08.2014 15:56 21,2 C 19,4 C 93 % 1005,0 hPa 0,0 l/m 2 min 0 min 2,5 UV-I 494 W/m 0,0 km/h (0 Bft)
02.08.2014 15:58 21,3 C 19,4 C 93 % 1004,9 hPa 0,0 l/m 2 min 0 min 2,0 UV-I 382 W/m 0,0 km/h (0 Bft)
02.08.2014 16:00 21,3 C 18,9 C 89 % 1004,9 hPa 0,0 l/m 2 min 0 min 2,0 UV-I 362 W/m 0,0 km/h (0 Bft)
02.08.2014 16:02 21,3 C 19,4 C 89 % 1004,9 hPa 0,0 l/m 0 min 0 min 1,7 UV-I 288 W/m 3,5 km/h (1 Bft)
02.08.2014 16:04 21,3 C 18,9 C 88 % 1004,8 hPa 0,0 l/m 0 min 0 min 1,8 UV-I 319 W/m 0,0 km/h (0 Bft)
02.08.2014 16:06 21,3 C 18,9 C 87 % 1004,8 hPa 0,0 l/m 0 min 0 min 2,0 UV-I 346 W/m 0,0 km/h (0 Bft)
02.08.2014 16:08 21,5 C 19,4 C 87 % 1004,7 hPa 0,0 l/m 2 min 0 min 2,1 UV-I 346 W/m 0,0 km/h (0 Bft)
02.08.2014 16:10 21,7 C 20,0 C 88 % 1004,7 hPa 0,0 l/m 2 min 0 min 2,0 UV-I 344 W/m 10,7 km/h (2 Bft)
02.08.2014 16:12 21,8 C 19,4 C 87 % 1004,6 hPa 0,0 l/m 2 min 0 min 1,9 UV-I 347 W/m 10,7 km/h (2 Bft)
02.08.2014 16:14 21,8 C 19,4 C 87 % 1004,6 hPa 0,0 l/m 0 min 0 min 1,8 UV-I 329 W/m 14,2 km/h (3 Bft)
02.08.2014 16:16 21,9 C 20,0 C 88 % 1004,7 hPa 0,0 l/m 0 min 0 min 1,5 UV-I 286 W/m 3,5 km/h (1 Bft)
02.08.2014 16:18 21,7 C 20,0 C 89 % 1004,8 hPa 0,0 l/m 0 min 0 min 1,2 UV-I 210 W/m 0,0 km/h (0 Bft)
02.08.2014 16:20 21,7 C 19,4 C 87 % 1004,8 hPa 0,0 l/m 0 min 0 min 1,0 UV-I 184 W/m 0,0 km/h (0 Bft)
02.08.2014 16:22 21,6 C 19,4 C 87 % 1004,7 hPa 0,0 l/m 0 min 0 min 1,0 UV-I 179 W/m 3,5 km/h (1 Bft)
02.08.2014 16:24 21,6 C 19,4 C 87 % 1004,7 hPa 0,0 l/m 0 min 0 min 1,0 UV-I 179 W/m 0,0 km/h (0 Bft)
02.08.2014 16:26 21,6 C 19,4 C 89 % 1004,8 hPa 0,0 l/m 0 min 0 min 1,0 UV-I 181 W/m 0,0 km/h (0 Bft)
02.08.2014 16:28 21,6 C 19,4 C 88 % 1004,7 hPa 0,0 l/m 0 min 0 min 0,9 UV-I 178 W/m 3,5 km/h (1 Bft)
02.08.2014 16:30 21,6 C 19,4 C 89 % 1004,8 hPa 0,0 l/m 0 min 0 min 0,9 UV-I 180 W/m 14,2 km/h (3 Bft)
02.08.2014 16:32 21,6 C 19,4 C 88 % 1004,8 hPa 0,0 l/m 0 min 0 min 0,9 UV-I 177 W/m 10,7 km/h (2 Bft)
02.08.2014 16:34 21,7 C 19,4 C 90 % 1004,8 hPa 0,0 l/m 0 min 0 min 0,7 UV-I 158 W/m 14,2 km/h (3 Bft)
02.08.2014 16:36 21,6 C 19,4 C 91 % 1004,8 hPa 0,0 l/m 0 min 0 min 0,0 UV-I 127 W/m 14,2 km/h (3 Bft)
02.08.2014 16:38 21,6 C 19,4 C 90 % 1004,8 hPa 0,0 l/m 0 min 0 min 0,0 UV-I 98 W/m 14,2 km/h (3 Bft)
02.08.2014 16:40 21,4 C 19,4 C 90 % 1004,9 hPa 0,0 l/m 0 min 0 min 0,0 UV-I 79 W/m 17,7 km/h (3 Bft)
02.08.2014 16:42 21,4 C 19,4 C 89 % 1004,9 hPa 0,0 l/m 0 min 0 min 0,0 UV-I 67 W/m 0,0 km/h (0 Bft)
02.08.2014 16:44 21,4 C 19,4 C 90 % 1005,0 hPa 0,0 l/m 0 min 0 min 0,0 UV-I 63 W/m 10,7 km/h (2 Bft)
02.08.2014 16:46 21,3 C 19,4 C 90 % 1005,1 hPa 0,0 l/m 0 min 2 min 0,0 UV-I 71 W/m 0,0 km/h (0 Bft)
02.08.2014 16:48 21,3 C 18,9 C 90 % 1005,0 hPa 0,0 l/m 0 min 2 min 0,0 UV-I 84 W/m 0,0 km/h (0 Bft)
02.08.2014 16:50 21,2 C 19,4 C 90 % 1005,0 hPa 0,0 l/m 0 min 0 min 0,0 UV-I 95 W/m 0,0 km/h (0 Bft)
02.08.2014 16:52 21,2 C 19,4 C 90 % 1005,0 hPa 0,0 l/m 0 min 0 min 0,0 UV-I 105 W/m 0,0 km/h (0 Bft)
02.08.2014 16:54 21,2 C 19,4 C 91 % 1005,0 hPa 0,0 l/m 0 min 2 min 0,0 UV-I 115 W/m 3,5 km/h (1 Bft)
02.08.2014 16:56 21,3 C 19,4 C 92 % 1005,0 hPa 0,0 l/m 0 min 2 min 0,0 UV-I 116 W/m 0,0 km/h (0 Bft)
02.08.2014 16:58 21,2 C 19,4 C 92 % 1004,9 hPa 0,0 l/m 0 min 2 min 0,0 UV-I 112 W/m 0,0 km/h (0 Bft)
02.08.2014 17:00 21,2 C 19,4 C 92 % 1004,9 hPa 0,0 l/m 0 min 0 min 0,0 UV-I 111 W/m 0,0 km/h (0 Bft)
02.08.2014 17:02 21,3 C 19,4 C 93 % 1004,9 hPa 0,0 l/m 0 min 0 min 0,0 UV-I 114 W/m 0,0 km/h (0 Bft)
02.08.2014 17:04 21,3 C 19,4 C 93 % 1005,0 hPa 0,0 l/m 0 min 2 min 0,0 UV-I 113 W/m 3,5 km/h (1 Bft)
02.08.2014 17:06 21,4 C 19,4 C 94 % 1005,0 hPa 0,0 l/m 0 min 2 min 0,0 UV-I 105 W/m 0,0 km/h (0 Bft)
02.08.2014 17:08 21,4 C 19,4 C 94 % 1005,0 hPa 0,0 l/m 0 min 2 min 0,0 UV-I 97 W/m 0,0 km/h (0 Bft)
02.08.2014 17:10 21,3 C 19,4 C 93 % 1005,0 hPa 0,0 l/m 0 min 2 min 0,0 UV-I 95 W/m 3,5 km/h (1 Bft)
02.08.2014 17:12 21,2 C 19,4 C 93 % 1005,1 hPa 0,0 l/m 0 min 2 min 0,0 UV-I 100 W/m 0,0 km/h (0 Bft)
02.08.2014 17:14 21,3 C 19,4 C 94 % 1005,2 hPa 0,0 l/m 0 min 2 min 0,0 UV-I 112 W/m 0,0 km/h (0 Bft)
02.08.2014 17:16 21,3 C 19,4 C 94 % 1005,2 hPa 0,2 l/m 0 min 2 min 0,0 UV-I 129 W/m 21,3 km/h (4 Bft)
02.08.2014 17:18 21,4 C 19,4 C 94 % 1005,3 hPa 0,0 l/m 0 min 2 min 0,0 UV-I 143 W/m 21,3 km/h (4 Bft)
02.08.2014 17:20 21,4 C 19,4 C 95 % 1005,3 hPa 0,0 l/m 0 min 2 min 0,0 UV-I 146 W/m 28,2 km/h (4 Bft)
02.08.2014 17:22 21,4 C 19,4 C 95 % 1005,5 hPa 0,0 l/m 0 min 2 min 0,0 UV-I 134 W/m 31,7 km/h (5 Bft)
02.08.2014 17:24 21,4 C 19,4 C 95 % 1005,6 hPa 0,0 l/m 0 min 2 min 0,0 UV-I 130 W/m 14,2 km/h (3 Bft)
02.08.2014 17:26 21,4 C 19,4 C 95 % 1005,6 hPa 0,0 l/m 0 min 0 min 0,0 UV-I 143 W/m 17,7 km/h (3 Bft)
02.08.2014 17:28 21,4 C 19,4 C 95 % 1005,6 hPa 0,0 l/m 0 min 0 min 0,0 UV-I 168 W/m 21,3 km/h (4 Bft)
02.08.2014 17:30 21,4 C 20,0 C 95 % 1005,6 hPa 0,0 l/m 0 min 2 min 0,1 UV-I 204 W/m 7,1 km/h (2 Bft)
02.08.2014 17:32 21,5 C 20,0 C 95 % 1005,6 hPa 0,0 l/m 2 min 2 min 0,5 UV-I 268 W/m 21,3 km/h (4 Bft)
02.08.2014 17:34 21,6 C 20,0 C 95 % 1005,4 hPa 0,0 l/m 2 min 0 min 0,7 UV-I 266 W/m 17,7 km/h (3 Bft)
02.08.2014 17:36 21,7 C 20,6 C 95 % 1005,3 hPa 0,0 l/m 2 min 0 min 0,7 UV-I 271 W/m 3,5 km/h (1 Bft)
02.08.2014 17:38 21,9 C 20,6 C 95 % 1005,2 hPa 0,0 l/m 2 min 0 min 0,7 UV-I 272 W/m 14,2 km/h (3 Bft)
02.08.2014 17:40 22,1 C 21,1 C 95 % 1005,2 hPa 0,0 l/m 2 min 0 min 0,7 UV-I 265 W/m 7,1 km/h (2 Bft)
02.08.2014 17:42 22,2 C 20,6 C 95 % 1005,1 hPa 0,0 l/m 2 min 0 min 0,7 UV-I 261 W/m 14,2 km/h (3 Bft)
02.08.2014 17:44 22,3 C 21,1 C 95 % 1005,2 hPa 0,0 l/m 0 min 0 min 0,7 UV-I 247 W/m 14,2 km/h (3 Bft)
02.08.2014 17:46 22,3 C 20,6 C 95 % 1005,2 hPa 0,0 l/m 0 min 0 min 0,7 UV-I 211 W/m 10,7 km/h (2 Bft)
02.08.2014 17:48 22,3 C 20,6 C 95 % 1005,2 hPa 0,0 l/m 0 min 0 min 0,5 UV-I 190 W/m 17,7 km/h (3 Bft)
02.08.2014 17:50 22,2 C 20,6 C 94 % 1005,2 hPa 0,0 l/m 0 min 0 min 0,5 UV-I 194 W/m 17,7 km/h (3 Bft)
02.08.2014 17:52 22,2 C 20,6 C 94 % 1005,2 hPa 0,0 l/m 0 min 0 min 0,5 UV-I 223 W/m 21,3 km/h (4 Bft)
02.08.2014 17:54 22,2 C 20,6 C 94 % 1005,3 hPa 0,0 l/m 0 min 0 min 0,5 UV-I 207 W/m 17,7 km/h (3 Bft)
02.08.2014 17:56 22,2 C 20,6 C 93 % 1005,3 hPa 0,0 l/m 0 min 0 min 0,1 UV-I 181 W/m 14,2 km/h (3 Bft)
02.08.2014 17:58 22,1 C 20,6 C 93 % 1005,2 hPa 0,0 l/m 0 min 0 min 0,0 UV-I 160 W/m 31,7 km/h (5 Bft)
02.08.2014 18:00 22,1 C 20,6 C 93 % 1005,2 hPa 0,0 l/m 0 min 0 min 0,0 UV-I 154 W/m 24,7 km/h (4 Bft)
02.08.2014 18:02 21,9 C 20,6 C 92 % 1005,2 hPa 0,0 l/m 0 min 0 min 0,0 UV-I 181 W/m 21,3 km/h (4 Bft)
02.08.2014 18:05 21,9 C 20,0 C 93 % 1005,2 hPa 0,0 l/m 0 min 0 min 0,0 UV-I 155 W/m 31,7 km/h (5 Bft)
02.08.2014 18:06 21,8 C 20,0 C 93 % 1005,2 hPa 0,0 l/m 0 min 0 min 0,0 UV-I 157 W/m 31,7 km/h (5 Bft)
02.08.2014 18:08 21,8 C 20,0 C 93 % 1005,3 hPa 0,0 l/m 0 min 0 min 0,0 UV-I 161 W/m 24,7 km/h (4 Bft)
02.08.2014 18:10 21,9 C 20,6 C 93 % 1005,2 hPa 0,0 l/m 0 min 0 min 0,0 UV-I 177 W/m 7,1 km/h (2 Bft)
02.08.2014 18:12 21,9 C 20,6 C 93 % 1005,2 hPa 0,0 l/m 2 min 0 min 0,0 UV-I 233 W/m 24,7 km/h (4 Bft)
02.08.2014 18:14 22,0 C 20,6 C 93 % 1005,2 hPa 0,0 l/m 2 min 0 min 0,0 UV-I 341 W/m 21,3 km/h (4 Bft)
02.08.2014 18:16 22,1 C 20,6 C 93 % 1005,2 hPa 0,0 l/m 2 min 0 min 0,0 UV-I 221 W/m 28,2 km/h (4 Bft)
02.08.2014 18:18 22,2 C 21,1 C 93 % 1005,2 hPa 0,0 l/m 2 min 0 min 0,0 UV-I 261 W/m 21,3 km/h (4 Bft)
02.08.2014 18:20 22,2 C 21,1 C 93 % 1005,2 hPa 0,0 l/m 2 min 0 min 0,0 UV-I 243 W/m 28,2 km/h (4 Bft)
02.08.2014 18:22 22,3 C 21,1 C 93 % 1005,1 hPa 0,0 l/m 2 min 0 min 0,0 UV-I 280 W/m 28,2 km/h (4 Bft)
02.08.2014 18:24 22,3 C 21,1 C 92 % 1005,1 hPa 0,0 l/m 2 min 0 min 0,0 UV-I 227 W/m 31,7 km/h (5 Bft)
02.08.2014 18:26 22,3 C 21,1 C 92 % 1005,1 hPa 0,0 l/m 0 min 0 min 0,0 UV-I 206 W/m 38,9 km/h (6 Bft)
02.08.2014 18:28 22,3 C 20,6 C 91 % 1005,1 hPa 0,0 l/m 2 min 0 min 0,0 UV-I 206 W/m 35,4 km/h (5 Bft)
02.08.2014 18:30 22,2 C 20,6 C 91 % 1005,1 hPa 0,0 l/m 2 min 0 min 0,0 UV-I 217 W/m 21,3 km/h (4 Bft)
02.08.2014 18:32 22,1 C 20,6 C 91 % 1005,1 hPa 0,0 l/m 2 min 0 min 0,0 UV-I 207 W/m 24,7 km/h (4 Bft)
02.08.2014 18:34 22,1 C 20,6 C 91 % 1005,1 hPa 0,0 l/m 2 min 0 min 0,0 UV-I 277 W/m 24,7 km/h (4 Bft)
02.08.2014 18:36 22,1 C 20,6 C 91 % 1005,1 hPa 0,0 l/m 2 min 0 min 0,0 UV-I 232 W/m 17,7 km/h (3 Bft)
02.08.2014 18:38 22,2 C 20,6 C 91 % 1005,0 hPa 0,0 l/m 0 min 0 min 0,0 UV-I 150 W/m 10,7 km/h (2 Bft)
02.08.2014 18:40 22,2 C 20,6 C 91 % 1005,0 hPa 0,0 l/m 0 min 0 min 0,0 UV-I 136 W/m 17,7 km/h (3 Bft)
02.08.2014 18:42 22,1 C 20,6 C 91 % 1005,0 hPa 0,0 l/m 0 min 0 min 0,0 UV-I 125 W/m 24,7 km/h (4 Bft)
02.08.2014 18:44 22,1 C 20,6 C 91 % 1005,0 hPa 0,0 l/m 0 min 0 min 0,0 UV-I 119 W/m 24,7 km/h (4 Bft)
02.08.2014 18:46 22,0 C 20,6 C 91 % 1005,0 hPa 0,0 l/m 0 min 0 min 0,0 UV-I 141 W/m 24,7 km/h (4 Bft)
02.08.2014 18:48 21,9 C 20,0 C 90 % 1005,0 hPa 0,0 l/m 0 min 0 min 0,0 UV-I 173 W/m 24,7 km/h (4 Bft)
02.08.2014 18:50 21,9 C 20,0 C 90 % 1004,9 hPa 0,0 l/m 2 min 0 min 0,0 UV-I 188 W/m 10,7 km/h (2 Bft)
02.08.2014 18:52 21,9 C 20,0 C 91 % 1004,9 hPa 0,0 l/m 2 min 0 min 0,0 UV-I 207 W/m 14,2 km/h (3 Bft)
02.08.2014 18:54 22,0 C 20,0 C 91 % 1004,9 hPa 0,0 l/m 2 min 0 min 0,0 UV-I 206 W/m 14,2 km/h (3 Bft)
02.08.2014 18:56 22,0 C 20,0 C 91 % 1004,9 hPa 0,0 l/m 2 min 0 min 0,0 UV-I 226 W/m 3,5 km/h (1 Bft)
02.08.2014 18:58 22,0 C 20,0 C 91 % 1004,8 hPa 0,0 l/m 2 min 0 min 0,0 UV-I 205 W/m 17,7 km/h (3 Bft)
02.08.2014 19:00 22,1 C 20,6 C 90 % 1005,0 hPa 0,0 l/m 2 min 0 min 0,0 UV-I 200 W/m 10,7 km/h (2 Bft)
02.08.2014 19:02 22,1 C 20,0 C 91 % 1005,1 hPa 0,0 l/m 2 min 0 min 0,0 UV-I 190 W/m 14,2 km/h (3 Bft)
02.08.2014 19:04 22,2 C 20,6 C 90 % 1005,1 hPa 0,0 l/m 2 min 0 min 0,0 UV-I 205 W/m 21,3 km/h (4 Bft)
02.08.2014 19:06 22,2 C 20,6 C 90 % 1005,1 hPa 0,0 l/m 2 min 0 min 0,0 UV-I 201 W/m 7,1 km/h (2 Bft)
02.08.2014 19:08 22,2 C 20,6 C 91 % 1005,1 hPa 0,0 l/m 2 min 0 min 0,0 UV-I 182 W/m 21,3 km/h (4 Bft)
02.08.2014 19:10 22,2 C 20,6 C 91 % 1005,1 hPa 0,0 l/m 2 min 0 min 0,0 UV-I 159 W/m 14,2 km/h (3 Bft)
02.08.2014 19:12 22,2 C 20,6 C 91 % 1005,2 hPa 0,0 l/m 2 min 0 min 0,0 UV-I 170 W/m 14,2 km/h (3 Bft)
02.08.2014 19:14 22,2 C 20,6 C 90 % 1005,2 hPa 0,0 l/m 2 min 0 min 0,0 UV-I 184 W/m 14,2 km/h (3 Bft)
02.08.2014 19:16 22,2 C 20,6 C 91 % 1005,2 hPa 0,0 l/m 2 min 0 min 0,0 UV-I 178 W/m 10,7 km/h (2 Bft)
02.08.2014 19:18 22,2 C 20,6 C 91 % 1005,2 hPa 0,0 l/m 2 min 0 min 0,0 UV-I 175 W/m 14,2 km/h (3 Bft)
02.08.2014 19:20 22,3 C 20,6 C 91 % 1005,2 hPa 0,0 l/m 2 min 0 min 0,0 UV-I 164 W/m 21,3 km/h (4 Bft)
02.08.2014 19:22 22,3 C 20,6 C 91 % 1005,2 hPa 0,0 l/m 2 min 0 min 0,0 UV-I 162 W/m 14,2 km/h (3 Bft)
02.08.2014 19:24 22,4 C 20,6 C 91 % 1005,2 hPa 0,0 l/m 2 min 0 min 0,0 UV-I 150 W/m 17,7 km/h (3 Bft)
02.08.2014 19:26 22,4 C 20,6 C 91 % 1005,3 hPa 0,0 l/m 0 min 0 min 0,0 UV-I 109 W/m 21,3 km/h (4 Bft)
02.08.2014 19:28 22,3 C 20,6 C 91 % 1005,3 hPa 0,0 l/m 0 min 0 min 0,0 UV-I 95 W/m 28,2 km/h (4 Bft)
02.08.2014 19:30 22,3 C 20,6 C 91 % 1005,3 hPa 0,0 l/m 0 min 0 min 0,0 UV-I 91 W/m 17,7 km/h (3 Bft)
02.08.2014 19:32 22,3 C 20,6 C 91 % 1005,3 hPa 0,0 l/m 0 min 0 min 0,0 UV-I 82 W/m 10,7 km/h (2 Bft)
02.08.2014 19:34 22,3 C 20,6 C 91 % 1005,3 hPa 0,0 l/m 0 min 0 min 0,0 UV-I 77 W/m 10,7 km/h (2 Bft)
02.08.2014 19:36 22,2 C 20,6 C 91 % 1005,4 hPa 0,0 l/m 0 min 0 min 0,0 UV-I 73 W/m 17,7 km/h (3 Bft)
02.08.2014 19:38 22,2 C 20,6 C 91 % 1005,4 hPa 0,0 l/m 0 min 0 min 0,0 UV-I 69 W/m 17,7 km/h (3 Bft)
02.08.2014 19:40 22,2 C 20,6 C 91 % 1005,4 hPa 0,0 l/m 0 min 0 min 0,0 UV-I 67 W/m 24,7 km/h (4 Bft)
02.08.2014 19:42 22,1 C 20,6 C 91 % 1005,4 hPa 0,0 l/m 0 min 0 min 0,0 UV-I 62 W/m 14,2 km/h (3 Bft)
02.08.2014 19:44 22,1 C 20,6 C 91 % 1005,4 hPa 0,0 l/m 0 min 0 min 0,0 UV-I 58 W/m 21,3 km/h (4 Bft)
02.08.2014 19:46 22,1 C 20,6 C 91 % 1005,4 hPa 0,0 l/m 0 min 0 min 0,0 UV-I 56 W/m 14,2 km/h (3 Bft)
02.08.2014 19:48 22,0 C 20,6 C 91 % 1005,4 hPa 0,0 l/m 0 min 0 min 0,0 UV-I 69 W/m 14,2 km/h (3 Bft)
02.08.2014 19:50 22,1 C 20,6 C 91 % 1005,5 hPa 0,0 l/m 0 min 0 min 0,0 UV-I 77 W/m 17,7 km/h (3 Bft)
02.08.2014 19:52 22,1 C 20,6 C 91 % 1005,6 hPa 0,0 l/m 0 min 0 min 0,0 UV-I 65 W/m 17,7 km/h (3 Bft)
02.08.2014 19:54 22,1 C 20,6 C 91 % 1005,6 hPa 0,0 l/m 0 min 0 min 0,0 UV-I 66 W/m 21,3 km/h (4 Bft)
02.08.2014 19:56 22,1 C 20,6 C 91 % 1005,6 hPa 0,0 l/m 0 min 0 min 0,0 UV-I 73 W/m 17,7 km/h (3 Bft)
02.08.2014 19:58 22,1 C 20,6 C 91 % 1005,6 hPa 0,0 l/m 0 min 0 min 0,0 UV-I 70 W/m 14,2 km/h (3 Bft)
02.08.2014 20:00 22,1 C 20,6 C 91 % 1005,6 hPa 0,0 l/m 0 min 0 min 0,0 UV-I 77 W/m 3,5 km/h (1 Bft)
02.08.2014 20:02 22,1 C 20,6 C 91 % 1005,7 hPa 0,0 l/m 0 min 0 min 0,0 UV-I 70 W/m 17,7 km/h (3 Bft)
02.08.2014 20:04 22,1 C 20,6 C 91 % 1005,7 hPa 0,0 l/m 0 min 0 min 0,0 UV-I 77 W/m 21,3 km/h (4 Bft)
02.08.2014 20:06 22,1 C 20,6 C 91 % 1005,7 hPa 0,0 l/m 0 min 0 min 0,0 UV-I 74 W/m 21,3 km/h (4 Bft)
02.08.2014 20:08 22,1 C 20,6 C 91 % 1005,7 hPa 0,0 l/m 0 min 0 min 0,0 UV-I 68 W/m 14,2 km/h (3 Bft)
02.08.2014 20:10 22,1 C 20,6 C 91 % 1005,7 hPa 0,0 l/m 0 min 0 min 0,0 UV-I 71 W/m 14,2 km/h (3 Bft)
02.08.2014 20:12 22,1 C 20,6 C 91 % 1005,7 hPa 0,0 l/m 2 min 0 min 0,0 UV-I 76 W/m 17,7 km/h (3 Bft)
02.08.2014 20:14 22,1 C 20,6 C 91 % 1005,8 hPa 0,0 l/m 2 min 0 min 0,0 UV-I 79 W/m 21,3 km/h (4 Bft)
02.08.2014 20:16 22,0 C 20,6 C 91 % 1005,8 hPa 0,0 l/m 2 min 0 min 0,0 UV-I 73 W/m 17,7 km/h (3 Bft)
02.08.2014 20:18 22,0 C 20,6 C 91 % 1005,8 hPa 0,0 l/m 2 min 0 min 0,0 UV-I 77 W/m 24,7 km/h (4 Bft)
02.08.2014 20:20 22,0 C 20,6 C 91 % 1005,8 hPa 0,0 l/m 2 min 0 min 0,0 UV-I 75 W/m 21,3 km/h (4 Bft)
02.08.2014 20:22 22,0 C 20,6 C 91 % 1005,8 hPa 0,0 l/m 2 min 0 min 0,0 UV-I 70 W/m 21,3 km/h (4 Bft)
02.08.2014 20:24 21,9 C 20,6 C 91 % 1005,8 hPa 0,0 l/m 2 min 0 min 0,0 UV-I 67 W/m 14,2 km/h (3 Bft)
02.08.2014 20:26 21,9 C 20,6 C 91 % 1005,8 hPa 0,0 l/m 2 min 0 min 0,0 UV-I 64 W/m 14,2 km/h (3 Bft)
02.08.2014 20:28 21,9 C 20,6 C 91 % 1005,8 hPa 0,0 l/m 2 min 0 min 0,0 UV-I 62 W/m 14,2 km/h (3 Bft)
02.08.2014 20:30 21,9 C 20,6 C 91 % 1005,8 hPa 0,0 l/m 2 min 0 min 0,0 UV-I 59 W/m 17,7 km/h (3 Bft)
02.08.2014 20:32 21,8 C 20,0 C 91 % 1005,8 hPa 0,0 l/m 2 min 0 min 0,0 UV-I 54 W/m 17,7 km/h (3 Bft)
02.08.2014 20:34 21,8 C 20,0 C 91 % 1005,8 hPa 0,0 l/m 2 min 0 min 0,0 UV-I 50 W/m 21,3 km/h (4 Bft)
02.08.2014 20:36 21,8 C 20,0 C 91 % 1005,9 hPa 0,0 l/m 2 min 0 min 0,0 UV-I 46 W/m 10,7 km/h (2 Bft)
02.08.2014 20:38 21,7 C 20,0 C 91 % 1005,9 hPa 0,0 l/m 0 min 0 min 0,0 UV-I 42 W/m 24,7 km/h (4 Bft)
02.08.2014 20:40 21,7 C 20,0 C 91 % 1005,9 hPa 0,0 l/m 0 min 0 min 0,0 UV-I 40 W/m 17,7 km/h (3 Bft)
02.08.2014 20:42 21,7 C 20,0 C 91 % 1005,9 hPa 0,0 l/m 0 min 0 min 0,0 UV-I 37 W/m 10,7 km/h (2 Bft)
02.08.2014 20:44 21,6 C 20,0 C 91 % 1005,9 hPa 0,0 l/m 0 min 0 min 0,0 UV-I 33 W/m 17,7 km/h (3 Bft)
02.08.2014 20:46 21,6 C 20,0 C 91 % 1005,9 hPa 0,0 l/m 0 min 0 min 0,0 UV-I 29 W/m 14,2 km/h (3 Bft)
02.08.2014 20:48 21,5 C 19,4 C 91 % 1006,0 hPa 0,0 l/m 0 min 0 min 0,0 UV-I 27 W/m 0,0 km/h (0 Bft)
02.08.2014 20:50 21,5 C 19,4 C 91 % 1006,0 hPa 0,0 l/m 0 min 0 min 0,0 UV-I 25 W/m 0,0 km/h (0 Bft)
02.08.2014 20:52 21,4 C 19,4 C 91 % 1006,0 hPa 0,0 l/m 0 min 0 min 0,0 UV-I 24 W/m 3,5 km/h (1 Bft)
02.08.2014 20:54 21,4 C 19,4 C 91 % 1006,1 hPa 0,0 l/m 0 min 0 min 0,0 UV-I 22 W/m 0,0 km/h (0 Bft)
02.08.2014 20:56 21,4 C 19,4 C 91 % 1006,0 hPa 0,0 l/m 0 min 0 min 0,0 UV-I 19 W/m 14,2 km/h (3 Bft)
02.08.2014 20:58 21,3 C 19,4 C 91 % 1006,1 hPa 0,0 l/m 2 min 0 min 0,0 UV-I 19 W/m 3,5 km/h (1 Bft)
02.08.2014 21:00 21,3 C 19,4 C 91 % 1006,1 hPa 0,0 l/m 2 min 0 min 0,0 UV-I 18 W/m 7,1 km/h (2 Bft)
02.08.2014 21:02 21,3 C 19,4 C 91 % 1006,1 hPa 0,0 l/m 2 min 0 min 0,0 UV-I 16 W/m 0,0 km/h (0 Bft)
02.08.2014 21:04 21,2 C 19,4 C 91 % 1006,1 hPa 0,0 l/m 2 min 0 min 0,0 UV-I 15 W/m 7,1 km/h (2 Bft)
02.08.2014 21:06 21,2 C 19,4 C 91 % 1006,1 hPa 0,0 l/m 2 min 0 min 0,0 UV-I 14 W/m 14,2 km/h (3 Bft)
02.08.2014 21:08 21,2 C 19,4 C 91 % 1006,1 hPa 0,0 l/m 0 min 0 min 0,0 UV-I 16 W/m 17,7 km/h (3 Bft)
02.08.2014 21:10 21,1 C 19,4 C 91 % 1006,1 hPa 0,0 l/m 0 min 0 min 0,0 UV-I 16 W/m 10,7 km/h (2 Bft)
02.08.2014 21:12 21,1 C 19,4 C 91 % 1006,2 hPa 0,0 l/m 0 min 0 min 0,0 UV-I 17 W/m 3,5 km/h (1 Bft)
02.08.2014 21:14 21,1 C 19,4 C 91 % 1006,1 hPa 0,0 l/m 0 min 0 min 0,0 UV-I 0 W/m 3,5 km/h (1 Bft)
02.08.2014 21:16 21,1 C 19,4 C 91 % 1006,1 hPa 0,0 l/m 0 min 0 min 0,0 UV-I 0 W/m 14,2 km/h (3 Bft)
02.08.2014 21:18 21,1 C 19,4 C 91 % 1006,1 hPa 0,0 l/m 0 min 0 min 0,0 UV-I 0 W/m 7,1 km/h (2 Bft)
02.08.2014 21:20 21,0 C 19,4 C 92 % 1006,1 hPa 0,0 l/m 0 min 0 min 0,0 UV-I 0 W/m 7,1 km/h (2 Bft)
02.08.2014 21:22 21,0 C 18,9 C 92 % 1006,2 hPa 0,0 l/m 0 min 0 min 0,0 UV-I 0 W/m 3,5 km/h (1 Bft)
02.08.2014 21:24 20,9 C 18,9 C 92 % 1006,1 hPa 0,0 l/m 0 min 0 min 0,0 UV-I 0 W/m 17,7 km/h (3 Bft)
02.08.2014 21:26 20,9 C 18,9 C 92 % 1006,1 hPa 0,0 l/m 0 min 0 min 0,0 UV-I 0 W/m 10,7 km/h (2 Bft)
02.08.2014 21:28 20,9 C 18,9 C 92 % 1006,1 hPa 0,0 l/m 0 min 0 min 0,0 UV-I 0 W/m 3,5 km/h (1 Bft)
02.08.2014 21:30 20,8 C 18,9 C 92 % 1006,1 hPa 0,0 l/m 0 min 0 min 0,0 UV-I 0 W/m 0,0 km/h (0 Bft)
02.08.2014 21:32 20,8 C 18,9 C 92 % 1006,1 hPa 0,0 l/m 0 min 0 min 0,0 UV-I 0 W/m 10,7 km/h (2 Bft)
02.08.2014 21:34 20,7 C 18,9 C 92 % 1006,1 hPa 0,0 l/m 0 min 0 min 0,0 UV-I 0 W/m 10,7 km/h (2 Bft)
02.08.2014 21:36 20,7 C 18,9 C 93 % 1006,1 hPa 0,0 l/m 0 min 0 min 0,0 UV-I 0 W/m 10,7 km/h (2 Bft)
02.08.2014 21:38 20,6 C 18,9 C 93 % 1006,2 hPa 0,0 l/m 0 min 0 min 0,0 UV-I 0 W/m 14,2 km/h (3 Bft)
02.08.2014 21:40 20,6 C 18,9 C 93 % 1006,2 hPa 0,0 l/m 0 min 0 min 0,0 UV-I 0 W/m 10,7 km/h (2 Bft)
02.08.2014 21:42 20,5 C 18,3 C 93 % 1006,1 hPa 0,0 l/m 0 min 0 min 0,0 UV-I 0 W/m 0,0 km/h (0 Bft)
02.08.2014 21:44 20,4 C 18,3 C 93 % 1006,2 hPa 0,0 l/m 0 min 0 min 0,0 UV-I 0 W/m 0,0 km/h (0 Bft)
02.08.2014 21:46 20,4 C 18,3 C 94 % 1006,2 hPa 0,0 l/m 0 min 0 min 0,0 UV-I 0 W/m 0,0 km/h (0 Bft)
02.08.2014 21:48 20,4 C 18,3 C 94 % 1006,2 hPa 0,0 l/m 0 min 0 min 0,0 UV-I 0 W/m 0,0 km/h (0 Bft)
02.08.2014 21:50 20,3 C 18,3 C 94 % 1006,2 hPa 0,0 l/m 0 min 0 min 0,0 UV-I 0 W/m 0,0 km/h (0 Bft)
02.08.2014 21:52 20,3 C 18,3 C 94 % 1006,2 hPa 0,0 l/m 0 min 0 min 0,0 UV-I 0 W/m 3,5 km/h (1 Bft)
02.08.2014 21:54 20,2 C 18,3 C 94 % 1006,2 hPa 0,0 l/m 0 min 0 min 0,0 UV-I 0 W/m 3,5 km/h (1 Bft)
02.08.2014 21:56 20,2 C 18,3 C 94 % 1006,2 hPa 0,0 l/m 0 min 0 min 0,0 UV-I 0 W/m 0,0 km/h (0 Bft)
02.08.2014 21:58 20,1 C 18,3 C 94 % 1006,2 hPa 0,0 l/m 0 min 0 min 0,0 UV-I 0 W/m 0,0 km/h (0 Bft)
02.08.2014 22:00 20,1 C 18,3 C 94 % 1006,2 hPa 0,0 l/m 0 min 0 min 0,0 UV-I 0 W/m 3,5 km/h (1 Bft)
02.08.2014 22:02 20,1 C 18,3 C 94 % 1006,2 hPa 0,0 l/m 0 min 0 min 0,0 UV-I 0 W/m 3,5 km/h (1 Bft)
02.08.2014 22:04 20,0 C 18,3 C 94 % 1006,1 hPa 0,0 l/m 0 min 0 min 0,0 UV-I 0 W/m 10,7 km/h (2 Bft)
02.08.2014 22:06 20,0 C 18,3 C 95 % 1006,1 hPa 0,0 l/m 0 min 0 min 0,0 UV-I 0 W/m 10,7 km/h (2 Bft)
02.08.2014 22:08 19,9 C 18,3 C 95 % 1006,2 hPa 0,0 l/m 0 min 0 min 0,0 UV-I 0 W/m 17,7 km/h (3 Bft)
02.08.2014 22:10 19,9 C 18,3 C 95 % 1006,2 hPa 0,0 l/m 0 min 0 min 0,0 UV-I 0 W/m 0,0 km/h (0 Bft)
02.08.2014 22:12 19,9 C 18,3 C 95 % 1006,2 hPa 0,0 l/m 0 min 0 min 0,0 UV-I 0 W/m 3,5 km/h (1 Bft)
02.08.2014 22:14 19,9 C 18,3 C 95 % 1006,3 hPa 0,0 l/m 0 min 0 min 0,0 UV-I 0 W/m 7,1 km/h (2 Bft)
02.08.2014 22:16 19,9 C 18,3 C 95 % 1006,3 hPa 0,0 l/m 0 min 0 min 0,0 UV-I 0 W/m 10,7 km/h (2 Bft)
02.08.2014 22:18 19,9 C 18,3 C 95 % 1006,3 hPa 0,0 l/m 0 min 0 min 0,0 UV-I 0 W/m 17,7 km/h (3 Bft)
02.08.2014 22:20 19,9 C 17,8 C 95 % 1006,4 hPa 0,0 l/m 0 min 0 min 0,0 UV-I 0 W/m 14,2 km/h (3 Bft)
02.08.2014 22:22 19,8 C 17,8 C 95 % 1006,5 hPa 0,0 l/m 0 min 0 min 0,0 UV-I 0 W/m 14,2 km/h (3 Bft)
02.08.2014 22:24 19,8 C 17,8 C 95 % 1006,5 hPa 0,0 l/m 0 min 0 min 0,0 UV-I 0 W/m 17,7 km/h (3 Bft)
02.08.2014 22:26 19,7 C 17,8 C 94 % 1006,6 hPa 0,0 l/m 0 min 0 min 0,0 UV-I 0 W/m 14,2 km/h (3 Bft)
02.08.2014 22:28 19,7 C 17,8 C 95 % 1006,6 hPa 0,0 l/m 0 min 0 min 0,0 UV-I 0 W/m 14,2 km/h (3 Bft)
02.08.2014 22:30 19,7 C 17,8 C 95 % 1006,7 hPa 0,0 l/m 0 min 0 min 0,0 UV-I 0 W/m 14,2 km/h (3 Bft)
02.08.2014 22:32 19,7 C 17,8 C 95 % 1006,7 hPa 0,0 l/m 0 min 0 min 0,0 UV-I 0 W/m 14,2 km/h (3 Bft)
02.08.2014 22:34 19,7 C 17,8 C 95 % 1006,7 hPa 0,0 l/m 0 min 0 min 0,0 UV-I 0 W/m 3,5 km/h (1 Bft)
02.08.2014 22:36 19,6 C 17,8 C 95 % 1006,7 hPa 0,0 l/m 0 min 0 min 0,0 UV-I 0 W/m 3,5 km/h (1 Bft)
02.08.2014 22:38 19,6 C 17,8 C 95 % 1006,7 hPa 0,0 l/m 0 min 0 min 0,0 UV-I 0 W/m 0,0 km/h (0 Bft)
02.08.2014 22:40 19,6 C 17,8 C 95 % 1006,7 hPa 0,0 l/m 0 min 0 min 0,0 UV-I 0 W/m 7,1 km/h (2 Bft)
02.08.2014 22:42 19,5 C 17,8 C 95 % 1006,7 hPa 0,0 l/m 0 min 0 min 0,0 UV-I 0 W/m 14,2 km/h (3 Bft)
02.08.2014 22:44 19,4 C 17,8 C 95 % 1006,8 hPa 0,0 l/m 0 min 0 min 0,0 UV-I 0 W/m 7,1 km/h (2 Bft)
02.08.2014 22:46 19,4 C 17,8 C 95 % 1006,8 hPa 0,0 l/m 0 min 0 min 0,0 UV-I 0 W/m 17,7 km/h (3 Bft)
02.08.2014 22:48 19,4 C 17,8 C 95 % 1006,9 hPa 0,0 l/m 0 min 0 min 0,0 UV-I 0 W/m 17,7 km/h (3 Bft)
02.08.2014 22:50 19,3 C 17,8 C 95 % 1006,8 hPa 0,0 l/m 0 min 0 min 0,0 UV-I 0 W/m 14,2 km/h (3 Bft)
02.08.2014 22:52 19,3 C 17,8 C 95 % 1006,8 hPa 0,0 l/m 0 min 0 min 0,0 UV-I 0 W/m 14,2 km/h (3 Bft)
02.08.2014 22:54 19,3 C 17,8 C 95 % 1006,8 hPa 0,0 l/m 0 min 0 min 0,0 UV-I 0 W/m 17,7 km/h (3 Bft)
02.08.2014 22:56 19,3 C 17,8 C 95 % 1006,8 hPa 0,0 l/m 0 min 0 min 0,0 UV-I 0 W/m 14,2 km/h (3 Bft)
02.08.2014 22:58 19,3 C 17,8 C 95 % 1006,8 hPa 0,0 l/m 0 min 0 min 0,0 UV-I 0 W/m 14,2 km/h (3 Bft)
02.08.2014 23:00 19,3 C 17,8 C 95 % 1006,8 hPa 0,0 l/m 0 min 0 min 0,0 UV-I 0 W/m 10,7 km/h (2 Bft)
02.08.2014 23:02 19,3 C 17,8 C 95 % 1006,8 hPa 0,0 l/m 0 min 0 min 0,0 UV-I 0 W/m 10,7 km/h (2 Bft)
02.08.2014 23:04 19,3 C 17,8 C 95 % 1006,8 hPa 0,0 l/m 0 min 0 min 0,0 UV-I 0 W/m 14,2 km/h (3 Bft)
02.08.2014 23:06 19,3 C 17,8 C 95 % 1006,8 hPa 0,0 l/m 0 min 0 min 0,0 UV-I 0 W/m 14,2 km/h (3 Bft)
02.08.2014 23:08 19,2 C 17,8 C 96 % 1006,8 hPa 0,0 l/m 0 min 0 min 0,0 UV-I 0 W/m 17,7 km/h (3 Bft)
02.08.2014 23:10 19,2 C 17,8 C 96 % 1006,9 hPa 0,0 l/m 0 min 0 min 0,0 UV-I 0 W/m 24,7 km/h (4 Bft)
02.08.2014 23:12 19,2 C 17,8 C 96 % 1006,8 hPa 0,0 l/m 0 min 0 min 0,0 UV-I 0 W/m 17,7 km/h (3 Bft)
02.08.2014 23:14 19,2 C 17,8 C 96 % 1006,8 hPa 0,0 l/m 0 min 0 min 0,0 UV-I 0 W/m 14,2 km/h (3 Bft)
02.08.2014 23:16 19,2 C 17,8 C 96 % 1006,8 hPa 0,0 l/m 0 min 0 min 0,0 UV-I 0 W/m 14,2 km/h (3 Bft)
02.08.2014 23:18 19,2 C 17,2 C 96 % 1006,8 hPa 0,0 l/m 0 min 0 min 0,0 UV-I 0 W/m 3,5 km/h (1 Bft)
02.08.2014 23:20 19,2 C 17,2 C 96 % 1006,8 hPa 0,0 l/m 0 min 0 min 0,0 UV-I 0 W/m 14,2 km/h (3 Bft)
02.08.2014 23:22 19,2 C 17,2 C 96 % 1006,8 hPa 0,0 l/m 0 min 0 min 0,0 UV-I 0 W/m 14,2 km/h (3 Bft)
02.08.2014 23:24 19,2 C 17,2 C 96 % 1006,8 hPa 0,0 l/m 0 min 0 min 0,0 UV-I 0 W/m 10,7 km/h (2 Bft)
02.08.2014 23:26 19,1 C 17,2 C 96 % 1006,8 hPa 0,0 l/m 0 min 0 min 0,0 UV-I 0 W/m 0,0 km/h (0 Bft)
02.08.2014 23:28 19,1 C 17,2 C 96 % 1006,8 hPa 0,0 l/m 0 min 0 min 0,0 UV-I 0 W/m 14,2 km/h (3 Bft)
02.08.2014 23:30 19,1 C 17,2 C 96 % 1006,8 hPa 0,0 l/m 0 min 0 min 0,0 UV-I 0 W/m 10,7 km/h (2 Bft)
02.08.2014 23:32 19,1 C 17,2 C 96 % 1006,8 hPa 0,0 l/m 0 min 0 min 0,0 UV-I 0 W/m 10,7 km/h (2 Bft)
02.08.2014 23:34 19,1 C 17,2 C 96 % 1006,8 hPa 0,0 l/m 0 min 0 min 0,0 UV-I 0 W/m 14,2 km/h (3 Bft)
02.08.2014 23:36 19,1 C 17,2 C 96 % 1006,8 hPa 0,0 l/m 0 min 0 min 0,0 UV-I 0 W/m 10,7 km/h (2 Bft)
02.08.2014 23:38 19,0 C 17,2 C 96 % 1006,8 hPa 0,0 l/m 0 min 0 min 0,0 UV-I 0 W/m 14,2 km/h (3 Bft)
02.08.2014 23:40 19,0 C 17,2 C 96 % 1006,9 hPa 0,0 l/m 0 min 0 min 0,0 UV-I 0 W/m 3,5 km/h (1 Bft)
02.08.2014 23:42 19,0 C 17,2 C 96 % 1006,9 hPa 0,0 l/m 0 min 0 min 0,0 UV-I 0 W/m 10,7 km/h (2 Bft)
02.08.2014 23:44 19,0 C 17,2 C 96 % 1006,8 hPa 0,0 l/m 0 min 0 min 0,0 UV-I 0 W/m 14,2 km/h (3 Bft)
02.08.2014 23:46 19,0 C 17,2 C 96 % 1006,8 hPa 0,0 l/m 0 min 0 min 0,0 UV-I 0 W/m 10,7 km/h (2 Bft)
02.08.2014 23:48 19,0 C 17,2 C 96 % 1006,8 hPa 0,0 l/m 0 min 0 min 0,0 UV-I 0 W/m 14,2 km/h (3 Bft)
02.08.2014 23:50 19,0 C 17,2 C 96 % 1006,8 hPa 0,0 l/m 0 min 0 min 0,0 UV-I 0 W/m 3,5 km/h (1 Bft)
02.08.2014 23:52 19,0 C 17,2 C 96 % 1006,8 hPa 0,0 l/m 0 min 0 min 0,0 UV-I 0 W/m 0,0 km/h (0 Bft)
02.08.2014 23:54 19,0 C 17,2 C 96 % 1006,8 hPa 0,0 l/m 0 min 0 min 0,0 UV-I 0 W/m 0,0 km/h (0 Bft)
02.08.2014 23:56 19,0 C 17,2 C 96 % 1006,8 hPa 0,0 l/m 0 min 0 min 0,0 UV-I 0 W/m 10,7 km/h (2 Bft)
02.08.2014 23:58 19,0 C 17,2 C 96 % 1006,7 hPa 0,0 l/m 0 min 0 min 0,0 UV-I 0 W/m 7,1 km/h (2 Bft)
_ Min-Zeit 15:02 14:50 13:12 14:18 - - - - - 00:00
Minimum _ 18,2 C 16,1 C 53 % 1004,3 hPa - - - - - 0,0 km/h (0 Bft)
_ Max-Zeit 13:10 12:34 15:26 00:00 14:54 06:34 14:18 12:50 12:06 14:18
Maximum _ 29,2 C 30,6 C 97 % 1007,9 hPa 3,2 l/m 2 min 2 min 4,8 UV-I 814 W/m 70,6 km/h
SW (8 Bft)
Durchschnitt _ 21,8 C 20,5 C 82 % 1006,0 hPa #34,8 l/m #7:25 h #1:38 h 2,2 UV-I 265 W/m 18,9 km/h (3 Bft)
© 2014 W. Hausmann